Wetterdaten: Freitag, 10.01.2020
Datum Zeit Temp. Aussen Temp. o. S. Temp +5cm Feuchte Auss Luftdruck Regen Sonnenschein Regendauer Solar Windben Empfang
10.01.2020 00:00 10,8 C 9,4 C 8,9 C 97 % 1010,1 hPa 0,0 l/m 0 min 2 min 0 W/m 19,3 km/h (3 Bft) 93,62 %
10.01.2020 00:02 10,8 C 9,4 C 8,9 C 97 % 1010,0 hPa 0,0 l/m 0 min 2 min 0 W/m 12,9 km/h (3 Bft) 89,47 %
10.01.2020 00:04 10,7 C 9,4 C 8,9 C 97 % 1010,0 hPa 0,2 l/m 0 min 2 min 0 W/m 16,1 km/h (3 Bft) 93,62 %
10.01.2020 00:08 10,7 C 9,4 C 8,9 C 97 % 1010,0 hPa 0,2 l/m 0 min 4 min 0 W/m 16,1 km/h (3 Bft) 93,62 %
10.01.2020 00:10 10,7 C 9,4 C 8,9 C 97 % 1010,1 hPa 0,2 l/m 0 min 2 min 0 W/m 22,5 km/h (4 Bft) 93,62 %
10.01.2020 00:12 10,7 C 9,4 C 8,9 C 97 % 1010,1 hPa 0,2 l/m 0 min 2 min 0 W/m 12,9 km/h (3 Bft) 91,49 %
10.01.2020 00:14 10,7 C 8,9 C 8,9 C 97 % 1010,1 hPa 0,0 l/m 0 min 2 min 0 W/m 16,1 km/h (3 Bft) 91,30 %
10.01.2020 00:16 10,7 C 8,9 C 8,9 C 97 % 1010,2 hPa 0,0 l/m 0 min 2 min 0 W/m 12,9 km/h (3 Bft) 93,62 %
10.01.2020 00:18 10,6 C 8,9 C 8,9 C 97 % 1010,4 hPa 0,2 l/m 0 min 2 min 0 W/m 12,9 km/h (3 Bft) 93,62 %
10.01.2020 00:20 10,6 C 8,9 C 8,9 C 97 % 1010,5 hPa 0,0 l/m 0 min 2 min 0 W/m 6,4 km/h (2 Bft) 93,62 %
10.01.2020 00:22 10,6 C 8,9 C 8,9 C 97 % 1010,6 hPa 0,0 l/m 0 min 2 min 0 W/m 16,1 km/h (3 Bft) 95,74 %
10.01.2020 00:24 10,6 C 8,9 C 8,9 C 97 % 1010,6 hPa 0,0 l/m 0 min 2 min 0 W/m 19,3 km/h (3 Bft) 95,74 %
10.01.2020 00:26 10,6 C 8,9 C 8,9 C 97 % 1010,5 hPa 0,0 l/m 0 min 2 min 0 W/m 22,5 km/h (4 Bft) 95,65 %
10.01.2020 00:28 10,6 C 8,9 C 8,9 C 97 % 1010,4 hPa 0,2 l/m 0 min 2 min 0 W/m 16,1 km/h (3 Bft) 97,87 %
10.01.2020 00:30 10,6 C 8,9 C 8,9 C 97 % 1010,3 hPa 0,0 l/m 0 min 2 min 0 W/m 16,1 km/h (3 Bft) 97,87 %
10.01.2020 00:32 10,5 C 8,9 C 8,9 C 97 % 1010,5 hPa 0,0 l/m 0 min 2 min 0 W/m 12,9 km/h (3 Bft) 97,87 %
10.01.2020 00:34 10,5 C 8,9 C 8,9 C 97 % 1010,5 hPa 0,0 l/m 0 min 2 min 0 W/m 16,1 km/h (3 Bft) 91,49 %
10.01.2020 00:36 10,5 C 8,9 C 8,9 C 97 % 1010,5 hPa 0,0 l/m 0 min 0 min 0 W/m 16,1 km/h (3 Bft) 95,65 %
10.01.2020 00:38 10,5 C 8,9 C 8,9 C 97 % 1010,5 hPa 0,0 l/m 0 min 0 min 0 W/m 12,9 km/h (3 Bft) 97,87 %
10.01.2020 00:40 10,4 C 9,4 C 8,9 C 97 % 1010,6 hPa 0,0 l/m 0 min 0 min 0 W/m 16,1 km/h (3 Bft) 97,87 %
10.01.2020 00:42 10,4 C 9,4 C 8,9 C 97 % 1010,6 hPa 0,0 l/m 0 min 0 min 0 W/m 12,9 km/h (3 Bft) 95,74 %
10.01.2020 00:44 10,4 C 9,4 C 8,9 C 97 % 1010,6 hPa 0,0 l/m 0 min 0 min 0 W/m 16,1 km/h (3 Bft) 100,00 %
10.01.2020 00:46 10,4 C 8,9 C 8,9 C 97 % 1010,6 hPa 0,0 l/m 0 min 0 min 0 W/m 12,9 km/h (3 Bft) 100,00 %
10.01.2020 00:48 10,4 C 9,4 C 8,9 C 97 % 1010,7 hPa 0,0 l/m 0 min 0 min 0 W/m 19,3 km/h (3 Bft) 100,00 %
10.01.2020 00:50 10,4 C 9,4 C 8,9 C 97 % 1010,7 hPa 0,0 l/m 0 min 0 min 0 W/m 22,5 km/h (4 Bft) 100,00 %
10.01.2020 00:52 10,4 C 9,4 C 8,9 C 97 % 1010,7 hPa 0,0 l/m 0 min 0 min 0 W/m 16,1 km/h (3 Bft) 100,00 %
10.01.2020 00:54 10,3 C 9,4 C 8,9 C 97 % 1010,8 hPa 0,0 l/m 0 min 0 min 0 W/m 16,1 km/h (3 Bft) 100,00 %
10.01.2020 00:56 10,3 C 9,4 C 8,9 C 97 % 1010,8 hPa 0,0 l/m 0 min 0 min 0 W/m 16,1 km/h (3 Bft) 100,00 %
10.01.2020 00:58 10,3 C 9,4 C 8,9 C 97 % 1010,7 hPa 0,0 l/m 0 min 0 min 0 W/m 25,7 km/h (4 Bft) 100,00 %
10.01.2020 01:00 10,3 C 9,4 C 8,9 C 97 % 1010,7 hPa 0,0 l/m 0 min 0 min 0 W/m 12,9 km/h (3 Bft) 100,00 %
10.01.2020 01:02 10,3 C 9,4 C 8,9 C 97 % 1010,6 hPa 0,0 l/m 0 min 0 min 0 W/m 12,9 km/h (3 Bft) 100,00 %
10.01.2020 01:04 10,3 C 9,4 C 8,9 C 97 % 1010,6 hPa 0,0 l/m 0 min 0 min 0 W/m 16,1 km/h (3 Bft) 100,00 %
10.01.2020 01:06 10,3 C 8,9 C 8,9 C 97 % 1010,5 hPa 0,0 l/m 0 min 0 min 0 W/m 19,3 km/h (3 Bft) 97,87 %
10.01.2020 01:08 10,3 C 8,9 C 8,9 C 97 % 1010,5 hPa 0,0 l/m 0 min 0 min 0 W/m 6,4 km/h (2 Bft) 100,00 %
10.01.2020 01:10 10,3 C 8,9 C 8,3 C 97 % 1010,5 hPa 0,0 l/m 0 min 0 min 0 W/m 12,9 km/h (3 Bft) 100,00 %
10.01.2020 01:12 10,3 C 8,9 C 8,3 C 97 % 1010,5 hPa 0,0 l/m 0 min 0 min 0 W/m 22,5 km/h (4 Bft) 100,00 %
10.01.2020 01:14 10,3 C 8,9 C 8,3 C 97 % 1010,4 hPa 0,0 l/m 0 min 0 min 0 W/m 19,3 km/h (3 Bft) 100,00 %
10.01.2020 01:16 10,3 C 8,9 C 8,3 C 97 % 1010,4 hPa 0,0 l/m 0 min 0 min 0 W/m 22,5 km/h (4 Bft) 100,00 %
10.01.2020 01:18 10,2 C 8,9 C 8,3 C 97 % 1010,4 hPa 0,0 l/m 0 min 0 min 0 W/m 22,5 km/h (4 Bft) 100,00 %
10.01.2020 01:20 10,2 C 8,9 C 8,3 C 97 % 1010,4 hPa 0,0 l/m 0 min 0 min 0 W/m 16,1 km/h (3 Bft) 100,00 %
10.01.2020 01:22 10,2 C 8,9 C 8,3 C 97 % 1010,3 hPa 0,0 l/m 0 min 0 min 0 W/m 16,1 km/h (3 Bft) 97,87 %
10.01.2020 01:24 10,2 C 8,9 C 8,3 C 97 % 1010,3 hPa 0,0 l/m 0 min 0 min 0 W/m 22,5 km/h (4 Bft) 100,00 %
10.01.2020 01:26 10,2 C 8,9 C 8,3 C 97 % 1010,3 hPa 0,0 l/m 0 min 0 min 0 W/m 22,5 km/h (4 Bft) 100,00 %
10.01.2020 01:28 10,2 C 8,9 C 8,3 C 97 % 1010,3 hPa 0,0 l/m 0 min 0 min 0 W/m 12,9 km/h (3 Bft) 100,00 %
10.01.2020 01:30 10,2 C 8,9 C 8,3 C 97 % 1010,3 hPa 0,0 l/m 0 min 0 min 0 W/m 16,1 km/h (3 Bft) 97,87 %
10.01.2020 01:32 10,2 C 8,9 C 8,3 C 97 % 1010,4 hPa 0,0 l/m 0 min 0 min 0 W/m 22,5 km/h (4 Bft) 100,00 %
10.01.2020 01:34 10,2 C 8,9 C 8,3 C 97 % 1010,6 hPa 0,0 l/m 0 min 0 min 0 W/m 19,3 km/h (3 Bft) 100,00 %
10.01.2020 01:36 10,2 C 8,9 C 8,3 C 97 % 1010,6 hPa 0,0 l/m 0 min 0 min 0 W/m 22,5 km/h (4 Bft) 100,00 %
10.01.2020 01:38 10,2 C 8,9 C 8,3 C 97 % 1010,5 hPa 0,0 l/m 0 min 0 min 0 W/m 16,1 km/h (3 Bft) 100,00 %
10.01.2020 01:40 10,2 C 8,9 C 8,3 C 97 % 1010,6 hPa 0,0 l/m 0 min 0 min 0 W/m 22,5 km/h (4 Bft) 100,00 %
10.01.2020 01:42 10,2 C 9,4 C 8,3 C 97 % 1010,5 hPa 0,0 l/m 0 min 0 min 0 W/m 22,5 km/h (4 Bft) 100,00 %
10.01.2020 01:44 10,2 C 8,9 C 8,3 C 97 % 1010,6 hPa 0,0 l/m 0 min 0 min 0 W/m 16,1 km/h (3 Bft) 100,00 %
10.01.2020 01:46 10,2 C 8,9 C 8,3 C 97 % 1010,8 hPa 0,0 l/m 0 min 0 min 0 W/m 19,3 km/h (3 Bft) 97,87 %
10.01.2020 01:48 10,2 C 8,9 C 8,3 C 97 % 1010,7 hPa 0,0 l/m 0 min 0 min 0 W/m 16,1 km/h (3 Bft) 100,00 %
10.01.2020 01:50 10,2 C 8,9 C 8,3 C 97 % 1010,7 hPa 0,0 l/m 0 min 0 min 0 W/m 16,1 km/h (3 Bft) 100,00 %
10.01.2020 01:52 10,2 C 8,9 C 8,3 C 97 % 1010,8 hPa 0,0 l/m 0 min 0 min 0 W/m 6,4 km/h (2 Bft) 100,00 %
10.01.2020 01:54 10,2 C 8,9 C 8,3 C 97 % 1010,7 hPa 0,0 l/m 0 min 0 min 0 W/m 16,1 km/h (3 Bft) 100,00 %
10.01.2020 01:56 10,2 C 8,9 C 8,3 C 97 % 1010,8 hPa 0,0 l/m 0 min 0 min 0 W/m 19,3 km/h (3 Bft) 100,00 %
10.01.2020 01:58 10,2 C 8,9 C 8,3 C 97 % 1010,8 hPa 0,0 l/m 0 min 0 min 0 W/m 16,1 km/h (3 Bft) 97,83 %
10.01.2020 02:00 10,2 C 8,9 C 8,3 C 97 % 1010,8 hPa 0,0 l/m 0 min 2 min 0 W/m 25,7 km/h (4 Bft) 97,87 %
10.01.2020 02:02 10,2 C 8,9 C 8,3 C 97 % 1010,8 hPa 0,0 l/m 0 min 2 min 0 W/m 12,9 km/h (3 Bft) 97,87 %
10.01.2020 02:04 10,2 C 8,9 C 8,3 C 97 % 1010,8 hPa 0,0 l/m 0 min 0 min 0 W/m 19,3 km/h (3 Bft) 100,00 %
10.01.2020 02:06 10,2 C 8,9 C 8,3 C 97 % 1010,9 hPa 0,0 l/m 0 min 2 min 0 W/m 19,3 km/h (3 Bft) 100,00 %
10.01.2020 02:08 10,2 C 8,9 C 8,3 C 97 % 1010,9 hPa 0,0 l/m 0 min 0 min 0 W/m 19,3 km/h (3 Bft) 97,87 %
10.01.2020 02:10 10,2 C 8,9 C 8,3 C 97 % 1010,9 hPa 0,0 l/m 0 min 0 min 0 W/m 19,3 km/h (3 Bft) 100,00 %
10.01.2020 02:12 10,2 C 8,9 C 8,3 C 96 % 1010,9 hPa 0,0 l/m 0 min 0 min 0 W/m 25,7 km/h (4 Bft) 100,00 %
10.01.2020 02:14 10,2 C 9,4 C 8,3 C 96 % 1011,0 hPa 0,0 l/m 0 min 0 min 0 W/m 19,3 km/h (3 Bft) 100,00 %
10.01.2020 02:16 10,2 C 9,4 C 8,3 C 96 % 1011,0 hPa 0,0 l/m 0 min 0 min 0 W/m 19,3 km/h (3 Bft) 100,00 %
10.01.2020 02:18 10,2 C 9,4 C 8,3 C 96 % 1011,0 hPa 0,0 l/m 0 min 0 min 0 W/m 22,5 km/h (4 Bft) 97,87 %
10.01.2020 02:20 10,2 C 9,4 C 8,3 C 96 % 1011,0 hPa 0,0 l/m 0 min 0 min 0 W/m 29,0 km/h (5 Bft) 97,87 %
10.01.2020 02:22 10,2 C 8,9 C 8,3 C 96 % 1011,1 hPa 0,0 l/m 0 min 2 min 0 W/m 12,9 km/h (3 Bft) 95,65 %
10.01.2020 02:24 10,3 C 9,4 C 8,3 C 96 % 1011,1 hPa 0,0 l/m 0 min 0 min 0 W/m 25,7 km/h (4 Bft) 97,87 %
10.01.2020 02:26 10,3 C 9,4 C 8,3 C 96 % 1011,2 hPa 0,0 l/m 0 min 0 min 0 W/m 19,3 km/h (3 Bft) 95,74 %
10.01.2020 02:28 10,3 C 9,4 C 8,3 C 96 % 1011,2 hPa 0,0 l/m 0 min 2 min 0 W/m 19,3 km/h (3 Bft) 97,87 %
10.01.2020 02:30 10,3 C 8,9 C 8,3 C 96 % 1011,2 hPa 0,0 l/m 0 min 2 min 0 W/m 29,0 km/h (5 Bft) 97,87 %
10.01.2020 02:32 10,3 C 8,9 C 8,3 C 96 % 1011,3 hPa 0,0 l/m 0 min 2 min 0 W/m 25,7 km/h (4 Bft) 97,87 %
10.01.2020 02:34 10,3 C 8,9 C 8,3 C 95 % 1011,3 hPa 0,0 l/m 0 min 2 min 0 W/m 22,5 km/h (4 Bft) 95,65 %
10.01.2020 02:36 10,3 C 8,9 C 8,3 C 95 % 1011,4 hPa 0,0 l/m 0 min 2 min 0 W/m 25,7 km/h (4 Bft) 95,74 %
10.01.2020 02:38 10,3 C 8,3 C 8,3 C 95 % 1011,2 hPa 0,0 l/m 0 min 2 min 0 W/m 22,5 km/h (4 Bft) 91,49 %
10.01.2020 02:40 10,3 C 8,3 C 8,3 C 95 % 1011,2 hPa 0,0 l/m 0 min 2 min 0 W/m 22,5 km/h (4 Bft) 93,62 %
10.01.2020 02:42 10,3 C 8,9 C 8,3 C 95 % 1011,3 hPa 0,2 l/m 0 min 0 min 0 W/m 16,1 km/h (3 Bft) 97,87 %
10.01.2020 02:44 10,3 C 8,9 C 8,3 C 95 % 1011,2 hPa 0,0 l/m 0 min 0 min 0 W/m 29,0 km/h (5 Bft) 95,74 %
10.01.2020 02:46 10,3 C 8,9 C 8,3 C 95 % 1011,2 hPa 0,0 l/m 0 min 0 min 0 W/m 22,5 km/h (4 Bft) 95,65 %
10.01.2020 02:48 10,3 C 8,9 C 8,3 C 95 % 1011,2 hPa 0,0 l/m 0 min 0 min 0 W/m 19,3 km/h (3 Bft) 93,62 %
10.01.2020 02:50 10,3 C 8,9 C 8,3 C 95 % 1011,2 hPa 0,0 l/m 0 min 0 min 0 W/m 12,9 km/h (3 Bft) 95,74 %
10.01.2020 02:52 10,3 C 8,9 C 8,3 C 95 % 1011,2 hPa 0,0 l/m 0 min 0 min 0 W/m 19,3 km/h (3 Bft) 95,74 %
10.01.2020 02:54 10,3 C 8,9 C 8,3 C 95 % 1011,3 hPa 0,0 l/m 0 min 0 min 0 W/m 12,9 km/h (3 Bft) 93,62 %
10.01.2020 02:56 10,3 C 8,9 C 8,3 C 95 % 1011,3 hPa 0,0 l/m 0 min 0 min 0 W/m 16,1 km/h (3 Bft) 91,30 %
10.01.2020 02:58 10,3 C 8,9 C 8,3 C 95 % 1011,3 hPa 0,0 l/m 0 min 0 min 0 W/m 32,2 km/h (5 Bft) 93,62 %
10.01.2020 03:00 10,3 C 8,9 C 8,3 C 95 % 1011,3 hPa 0,0 l/m 0 min 0 min 0 W/m 19,3 km/h (3 Bft) 93,62 %
10.01.2020 03:02 10,3 C 8,9 C 8,3 C 95 % 1011,5 hPa 0,0 l/m 0 min 2 min 0 W/m 12,9 km/h (3 Bft) 93,62 %
10.01.2020 03:04 10,3 C 8,3 C 8,3 C 95 % 1011,6 hPa 0,0 l/m 0 min 2 min 0 W/m 12,9 km/h (3 Bft) 93,62 %
10.01.2020 03:06 10,3 C 8,3 C 8,3 C 95 % 1011,8 hPa 0,2 l/m 0 min 2 min 0 W/m 19,3 km/h (3 Bft) 95,74 %
10.01.2020 03:08 10,2 C 8,3 C 7,8 C 95 % 1011,8 hPa 0,0 l/m 0 min 2 min 0 W/m 22,5 km/h (4 Bft) 95,65 %
10.01.2020 03:10 10,2 C 7,8 C 7,8 C 95 % 1011,8 hPa 0,0 l/m 0 min 2 min 0 W/m 35,4 km/h (5 Bft) 95,74 %
10.01.2020 03:12 10,1 C 7,8 C 7,2 C 95 % 1011,9 hPa 0,0 l/m 0 min 2 min 0 W/m 35,4 km/h (5 Bft) 93,62 %
10.01.2020 03:14 9,9 C 7,8 C 7,2 C 94 % 1012,0 hPa 0,2 l/m 0 min 2 min 0 W/m 29,0 km/h (5 Bft) 95,74 %
10.01.2020 03:16 9,8 C 7,2 C 7,2 C 94 % 1012,1 hPa 0,0 l/m 0 min 2 min 0 W/m 38,6 km/h (5 Bft) 95,74 %
10.01.2020 03:18 9,7 C 7,8 C 7,2 C 94 % 1011,9 hPa 0,0 l/m 0 min 2 min 0 W/m 35,4 km/h (5 Bft) 95,74 %
10.01.2020 03:20 9,7 C 7,8 C 7,2 C 93 % 1011,8 hPa 0,0 l/m 0 min 2 min 0 W/m 16,1 km/h (3 Bft) 95,65 %
10.01.2020 03:22 9,6 C 7,8 C 7,2 C 93 % 1011,9 hPa 0,0 l/m 0 min 2 min 0 W/m 19,3 km/h (3 Bft) 97,87 %
10.01.2020 03:24 9,6 C 7,2 C 7,2 C 93 % 1011,9 hPa 0,0 l/m 0 min 2 min 0 W/m 22,5 km/h (4 Bft) 95,74 %
10.01.2020 03:26 9,5 C 7,2 C 7,2 C 93 % 1011,9 hPa 0,0 l/m 0 min 2 min 0 W/m 12,9 km/h (3 Bft) 95,74 %
10.01.2020 03:28 9,4 C 7,2 C 7,2 C 93 % 1011,9 hPa 0,0 l/m 0 min 2 min 0 W/m 16,1 km/h (3 Bft) 97,87 %
10.01.2020 03:30 9,4 C 7,2 C 7,2 C 93 % 1011,8 hPa 0,0 l/m 0 min 2 min 0 W/m 12,9 km/h (3 Bft) 97,87 %
10.01.2020 03:32 9,3 C 7,2 C 7,2 C 93 % 1011,7 hPa 0,0 l/m 0 min 2 min 0 W/m 9,7 km/h (2 Bft) 97,83 %
10.01.2020 03:34 9,3 C 7,2 C 6,7 C 93 % 1011,6 hPa 0,0 l/m 0 min 2 min 0 W/m 12,9 km/h (3 Bft) 97,87 %
10.01.2020 03:36 9,3 C 7,2 C 6,7 C 93 % 1011,6 hPa 0,0 l/m 0 min 2 min 0 W/m 12,9 km/h (3 Bft) 97,87 %
10.01.2020 03:38 9,2 C 7,2 C 6,7 C 93 % 1011,7 hPa 0,0 l/m 0 min 2 min 0 W/m 19,3 km/h (3 Bft) 97,87 %
10.01.2020 03:40 9,2 C 7,2 C 6,7 C 93 % 1011,7 hPa 0,0 l/m 0 min 2 min 0 W/m 19,3 km/h (3 Bft) 97,87 %
10.01.2020 03:42 9,1 C 7,2 C 6,7 C 92 % 1011,8 hPa 0,0 l/m 0 min 2 min 0 W/m 12,9 km/h (3 Bft) 97,87 %
10.01.2020 03:44 9,1 C 7,2 C 6,7 C 92 % 1011,8 hPa 0,0 l/m 0 min 2 min 0 W/m 16,1 km/h (3 Bft) 97,83 %
10.01.2020 03:46 9,1 C 7,2 C 6,7 C 92 % 1011,8 hPa 0,0 l/m 0 min 0 min 0 W/m 16,1 km/h (3 Bft) 97,87 %
10.01.2020 03:48 9,1 C 7,2 C 6,7 C 92 % 1011,9 hPa 0,0 l/m 0 min 0 min 0 W/m 32,2 km/h (5 Bft) 97,87 %
10.01.2020 03:50 9,1 C 7,2 C 6,7 C 92 % 1011,9 hPa 0,0 l/m 0 min 0 min 0 W/m 22,5 km/h (4 Bft) 97,87 %
10.01.2020 03:52 9,1 C 7,2 C 6,7 C 92 % 1011,9 hPa 0,0 l/m 0 min 0 min 0 W/m 16,1 km/h (3 Bft) 100,00 %
10.01.2020 03:54 9,1 C 7,2 C 6,7 C 92 % 1011,9 hPa 0,0 l/m 0 min 0 min 0 W/m 19,3 km/h (3 Bft) 100,00 %
10.01.2020 03:56 9,0 C 7,2 C 6,7 C 92 % 1011,9 hPa 0,0 l/m 0 min 0 min 0 W/m 19,3 km/h (3 Bft) 100,00 %
10.01.2020 03:58 9,0 C 7,2 C 6,7 C 92 % 1012,0 hPa 0,0 l/m 0 min 0 min 0 W/m 19,3 km/h (3 Bft) 100,00 %
10.01.2020 04:00 9,0 C 7,2 C 6,7 C 92 % 1012,0 hPa 0,0 l/m 0 min 0 min 0 W/m 16,1 km/h (3 Bft) 97,87 %
10.01.2020 04:05 9,0 C 7,2 C 6,7 C 92 % 1012,0 hPa 0,0 l/m 0 min 0 min 0 W/m 19,3 km/h (3 Bft) 100,00 %
10.01.2020 04:06 9,0 C 7,2 C 6,7 C 92 % 1012,0 hPa 0,0 l/m 0 min 0 min 0 W/m 0,0 km/h (0 Bft) 100,00 %
10.01.2020 04:08 9,0 C 7,2 C 6,7 C 92 % 1012,0 hPa 0,0 l/m 0 min 0 min 0 W/m 12,9 km/h (3 Bft) 97,87 %
10.01.2020 04:10 9,0 C 7,8 C 6,7 C 92 % 1012,0 hPa 0,0 l/m 0 min 0 min 0 W/m 25,7 km/h (4 Bft) 100,00 %
10.01.2020 04:12 9,0 C 7,8 C 6,7 C 92 % 1012,0 hPa 0,0 l/m 0 min 0 min 0 W/m 16,1 km/h (3 Bft) 100,00 %
10.01.2020 04:14 9,0 C 7,8 C 6,7 C 92 % 1012,0 hPa 0,0 l/m 0 min 0 min 0 W/m 19,3 km/h (3 Bft) 100,00 %
10.01.2020 04:16 9,0 C 7,8 C 6,7 C 92 % 1012,0 hPa 0,0 l/m 0 min 0 min 0 W/m 19,3 km/h (3 Bft) 100,00 %
10.01.2020 04:18 9,0 C 7,8 C 6,7 C 92 % 1012,0 hPa 0,0 l/m 0 min 0 min 0 W/m 19,3 km/h (3 Bft) 100,00 %
10.01.2020 04:20 9,0 C 7,8 C 7,2 C 92 % 1012,0 hPa 0,0 l/m 0 min 0 min 0 W/m 25,7 km/h (4 Bft) 97,87 %
10.01.2020 04:22 9,0 C 7,8 C 6,7 C 92 % 1012,1 hPa 0,0 l/m 0 min 0 min 0 W/m 6,4 km/h (2 Bft) 57,45 %
10.01.2020 04:24 9,0 C 7,8 C 6,7 C 92 % 1012,0 hPa 0,0 l/m 0 min 0 min 0 W/m 12,9 km/h (3 Bft) 97,87 %
10.01.2020 04:26 9,0 C 7,8 C 7,2 C 92 % 1012,1 hPa 0,0 l/m 0 min 0 min 0 W/m 22,5 km/h (4 Bft) 100,00 %
10.01.2020 04:28 9,0 C 7,8 C 7,2 C 93 % 1012,1 hPa 0,0 l/m 0 min 0 min 0 W/m 16,1 km/h (3 Bft) 100,00 %
10.01.2020 04:30 9,1 C 7,8 C 7,2 C 93 % 1012,1 hPa 0,0 l/m 0 min 0 min 0 W/m 12,9 km/h (3 Bft) 97,83 %
10.01.2020 04:32 9,1 C 7,8 C 7,2 C 93 % 1012,2 hPa 0,0 l/m 0 min 0 min 0 W/m 19,3 km/h (3 Bft) 100,00 %
10.01.2020 04:34 9,1 C 7,8 C 7,2 C 93 % 1012,2 hPa 0,0 l/m 0 min 0 min 0 W/m 16,1 km/h (3 Bft) 100,00 %
10.01.2020 04:36 9,1 C 7,8 C 6,7 C 93 % 1012,2 hPa 0,0 l/m 0 min 0 min 0 W/m 16,1 km/h (3 Bft) 100,00 %
10.01.2020 04:38 9,1 C 7,8 C 6,7 C 93 % 1012,2 hPa 0,0 l/m 0 min 0 min 0 W/m 16,1 km/h (3 Bft) 97,87 %
10.01.2020 04:40 9,1 C 7,8 C 6,7 C 93 % 1012,3 hPa 0,0 l/m 0 min 0 min 0 W/m 16,1 km/h (3 Bft) 100,00 %
10.01.2020 04:42 9,1 C 7,8 C 6,7 C 93 % 1012,4 hPa 0,0 l/m 0 min 0 min 0 W/m 6,4 km/h (2 Bft) 97,83 %
10.01.2020 04:44 9,1 C 7,8 C 7,2 C 93 % 1012,5 hPa 0,0 l/m 0 min 0 min 0 W/m 12,9 km/h (3 Bft) 100,00 %
10.01.2020 04:46 9,1 C 7,8 C 7,2 C 93 % 1012,6 hPa 0,0 l/m 0 min 0 min 0 W/m 12,9 km/h (3 Bft) 93,62 %
10.01.2020 04:48 9,1 C 7,8 C 7,2 C 93 % 1012,5 hPa 0,0 l/m 0 min 0 min 0 W/m 22,5 km/h (4 Bft) 100,00 %
10.01.2020 04:50 9,0 C 7,8 C 7,2 C 93 % 1012,5 hPa 0,0 l/m 0 min 0 min 0 W/m 19,3 km/h (3 Bft) 97,87 %
10.01.2020 04:52 9,0 C 7,8 C 7,2 C 93 % 1012,5 hPa 0,0 l/m 0 min 0 min 0 W/m 16,1 km/h (3 Bft) 100,00 %
10.01.2020 04:54 9,0 C 7,8 C 7,2 C 93 % 1012,6 hPa 0,0 l/m 0 min 0 min 0 W/m 16,1 km/h (3 Bft) 97,83 %
10.01.2020 04:56 9,0 C 7,8 C 7,2 C 93 % 1012,5 hPa 0,0 l/m 0 min 0 min 0 W/m 16,1 km/h (3 Bft) 100,00 %
10.01.2020 04:58 9,0 C 7,8 C 7,2 C 93 % 1012,5 hPa 0,0 l/m 0 min 0 min 0 W/m 12,9 km/h (3 Bft) 100,00 %
10.01.2020 05:00 9,0 C 7,8 C 7,2 C 93 % 1012,5 hPa 0,0 l/m 0 min 2 min 0 W/m 19,3 km/h (3 Bft) 100,00 %
10.01.2020 05:02 9,0 C 7,8 C 7,2 C 93 % 1012,5 hPa 0,0 l/m 0 min 0 min 0 W/m 6,4 km/h (2 Bft) 97,87 %
10.01.2020 05:04 9,0 C 7,8 C 7,2 C 93 % 1012,5 hPa 0,0 l/m 0 min 0 min 0 W/m 9,7 km/h (2 Bft) 97,87 %
10.01.2020 05:06 9,0 C 7,8 C 7,2 C 93 % 1012,6 hPa 0,0 l/m 0 min 0 min 0 W/m 16,1 km/h (3 Bft) 97,83 %
10.01.2020 05:08 9,0 C 7,8 C 7,2 C 93 % 1012,6 hPa 0,0 l/m 0 min 0 min 0 W/m 9,7 km/h (2 Bft) 97,87 %
10.01.2020 05:10 9,0 C 7,8 C 7,2 C 93 % 1012,6 hPa 0,0 l/m 0 min 0 min 0 W/m 9,7 km/h (2 Bft) 97,87 %
10.01.2020 05:12 9,0 C 7,8 C 7,2 C 93 % 1012,6 hPa 0,0 l/m 0 min 0 min 0 W/m 12,9 km/h (3 Bft) 97,87 %
10.01.2020 05:14 9,0 C 7,8 C 7,2 C 93 % 1012,6 hPa 0,0 l/m 0 min 0 min 0 W/m 3,2 km/h (1 Bft) 95,74 %
10.01.2020 05:16 9,0 C 7,8 C 7,2 C 93 % 1012,6 hPa 0,0 l/m 0 min 0 min 0 W/m 12,9 km/h (3 Bft) 95,65 %
10.01.2020 05:18 9,0 C 8,3 C 7,2 C 93 % 1012,6 hPa 0,0 l/m 0 min 0 min 0 W/m 6,4 km/h (2 Bft) 95,74 %
10.01.2020 05:20 9,0 C 8,3 C 7,2 C 93 % 1012,6 hPa 0,0 l/m 0 min 0 min 0 W/m 12,9 km/h (3 Bft) 93,62 %
10.01.2020 05:22 9,0 C 7,8 C 7,2 C 93 % 1012,6 hPa 0,0 l/m 0 min 0 min 0 W/m 6,4 km/h (2 Bft) 95,74 %
10.01.2020 05:24 9,0 C 7,8 C 7,2 C 93 % 1012,6 hPa 0,0 l/m 0 min 0 min 0 W/m 6,4 km/h (2 Bft) 95,74 %
10.01.2020 05:26 9,0 C 7,8 C 6,7 C 93 % 1012,7 hPa 0,0 l/m 0 min 0 min 0 W/m 6,4 km/h (2 Bft) 95,74 %
10.01.2020 05:28 9,0 C 7,8 C 6,7 C 93 % 1012,7 hPa 0,0 l/m 0 min 0 min 0 W/m 6,4 km/h (2 Bft) 95,65 %
10.01.2020 05:30 9,0 C 7,8 C 6,7 C 93 % 1012,7 hPa 0,0 l/m 0 min 0 min 0 W/m 12,9 km/h (3 Bft) 95,74 %
10.01.2020 05:32 9,0 C 8,3 C 6,7 C 93 % 1012,7 hPa 0,0 l/m 0 min 0 min 0 W/m 6,4 km/h (2 Bft) 93,62 %
10.01.2020 05:34 9,0 C 8,3 C 6,7 C 93 % 1012,7 hPa 0,0 l/m 0 min 0 min 0 W/m 6,4 km/h (2 Bft) 95,74 %
10.01.2020 05:36 9,0 C 7,8 C 6,7 C 93 % 1012,7 hPa 0,0 l/m 0 min 0 min 0 W/m 12,9 km/h (3 Bft) 95,74 %
10.01.2020 05:38 8,9 C 8,3 C 6,7 C 93 % 1012,9 hPa 0,0 l/m 0 min 0 min 0 W/m 12,9 km/h (3 Bft) 97,87 %
10.01.2020 05:40 8,9 C 7,8 C 6,7 C 93 % 1012,9 hPa 0,0 l/m 0 min 0 min 0 W/m 6,4 km/h (2 Bft) 95,65 %
10.01.2020 05:42 8,9 C 7,8 C 6,7 C 93 % 1012,9 hPa 0,0 l/m 0 min 0 min 0 W/m 6,4 km/h (2 Bft) 95,74 %
10.01.2020 05:44 8,9 C 7,8 C 6,7 C 93 % 1012,9 hPa 0,0 l/m 0 min 0 min 0 W/m 3,2 km/h (1 Bft) 95,74 %
10.01.2020 05:46 8,9 C 7,8 C 6,7 C 93 % 1012,9 hPa 0,0 l/m 0 min 2 min 0 W/m 6,4 km/h (2 Bft) 97,87 %
10.01.2020 05:48 8,9 C 7,8 C 7,2 C 93 % 1012,9 hPa 0,0 l/m 0 min 2 min 0 W/m 6,4 km/h (2 Bft) 95,74 %
10.01.2020 05:50 8,9 C 7,8 C 7,2 C 93 % 1012,9 hPa 0,0 l/m 0 min 0 min 0 W/m 6,4 km/h (2 Bft) 97,87 %
10.01.2020 05:52 8,9 C 7,8 C 7,2 C 93 % 1013,0 hPa 0,0 l/m 0 min 0 min 0 W/m 6,4 km/h (2 Bft) 97,83 %
10.01.2020 05:54 8,9 C 7,8 C 7,2 C 93 % 1012,9 hPa 0,0 l/m 0 min 2 min 0 W/m 3,2 km/h (1 Bft) 97,87 %
10.01.2020 05:56 8,9 C 7,8 C 6,7 C 93 % 1012,9 hPa 0,0 l/m 0 min 0 min 0 W/m 0,0 km/h (0 Bft) 100,00 %
10.01.2020 05:58 8,8 C 7,8 C 6,7 C 93 % 1013,0 hPa 0,0 l/m 0 min 0 min 0 W/m 6,4 km/h (2 Bft) 95,74 %
10.01.2020 06:00 8,8 C 7,8 C 6,7 C 93 % 1013,0 hPa 0,0 l/m 0 min 0 min 0 W/m 12,9 km/h (3 Bft) 100,00 %
10.01.2020 06:02 8,8 C 7,8 C 6,7 C 93 % 1013,0 hPa 0,0 l/m 0 min 0 min 0 W/m 6,4 km/h (2 Bft) 97,83 %
10.01.2020 06:04 8,8 C 7,8 C 6,7 C 93 % 1013,0 hPa 0,0 l/m 0 min 0 min 0 W/m 6,4 km/h (2 Bft) 100,00 %
10.01.2020 06:06 8,8 C 7,8 C 6,7 C 93 % 1013,0 hPa 0,0 l/m 0 min 0 min 0 W/m 6,4 km/h (2 Bft) 100,00 %
10.01.2020 06:08 8,8 C 7,8 C 6,7 C 93 % 1013,1 hPa 0,0 l/m 0 min 0 min 0 W/m 3,2 km/h (1 Bft) 100,00 %
10.01.2020 06:10 8,8 C 7,8 C 6,7 C 93 % 1013,1 hPa 0,0 l/m 0 min 0 min 0 W/m 3,2 km/h (1 Bft) 100,00 %
10.01.2020 06:12 8,8 C 7,8 C 6,7 C 93 % 1013,1 hPa 0,0 l/m 0 min 0 min 0 W/m 3,2 km/h (1 Bft) 100,00 %
10.01.2020 06:14 8,8 C 7,8 C 6,7 C 93 % 1013,1 hPa 0,0 l/m 0 min 0 min 0 W/m 3,2 km/h (1 Bft) 100,00 %
10.01.2020 06:16 8,8 C 7,8 C 6,7 C 93 % 1013,1 hPa 0,0 l/m 0 min 0 min 0 W/m 6,4 km/h (2 Bft) 100,00 %
10.01.2020 06:18 8,8 C 7,8 C 6,7 C 93 % 1013,1 hPa 0,0 l/m 0 min 0 min 0 W/m 3,2 km/h (1 Bft) 100,00 %
10.01.2020 06:20 8,8 C 7,8 C 6,7 C 93 % 1013,1 hPa 0,0 l/m 0 min 0 min 0 W/m 3,2 km/h (1 Bft) 100,00 %
10.01.2020 06:22 8,8 C 7,8 C 6,7 C 93 % 1013,1 hPa 0,0 l/m 0 min 0 min 0 W/m 6,4 km/h (2 Bft) 97,87 %
10.01.2020 06:24 8,8 C 7,8 C 6,7 C 93 % 1013,2 hPa 0,0 l/m 0 min 0 min 0 W/m 6,4 km/h (2 Bft) 97,87 %
10.01.2020 06:26 8,8 C 7,8 C 6,7 C 93 % 1013,1 hPa 0,0 l/m 0 min 0 min 0 W/m 6,4 km/h (2 Bft) 97,83 %
10.01.2020 06:28 8,8 C 7,8 C 6,7 C 93 % 1013,1 hPa 0,0 l/m 0 min 0 min 0 W/m 0,0 km/h (0 Bft) 97,87 %
10.01.2020 06:30 8,8 C 7,8 C 7,2 C 93 % 1013,1 hPa 0,0 l/m 0 min 0 min 0 W/m 0,0 km/h (0 Bft) 97,87 %
10.01.2020 06:32 8,8 C 7,8 C 7,2 C 94 % 1013,1 hPa 0,0 l/m 0 min 0 min 0 W/m 0,0 km/h (0 Bft) 95,74 %
10.01.2020 06:34 8,8 C 7,8 C 7,2 C 94 % 1013,2 hPa 0,0 l/m 0 min 0 min 0 W/m 0,0 km/h (0 Bft) 97,87 %
10.01.2020 06:36 8,8 C 7,8 C 7,2 C 94 % 1013,2 hPa 0,0 l/m 0 min 0 min 0 W/m 0,0 km/h (0 Bft) 97,87 %
10.01.2020 06:38 8,8 C 7,8 C 7,2 C 94 % 1013,2 hPa 0,0 l/m 0 min 0 min 0 W/m 0,0 km/h (0 Bft) 93,48 %
10.01.2020 06:40 8,8 C 7,8 C 7,2 C 94 % 1013,2 hPa 0,0 l/m 0 min 0 min 0 W/m 0,0 km/h (0 Bft) 97,87 %
10.01.2020 06:42 8,8 C 7,8 C 7,2 C 94 % 1013,2 hPa 0,0 l/m 0 min 0 min 0 W/m 0,0 km/h (0 Bft) 97,87 %
10.01.2020 06:44 8,8 C 7,8 C 7,2 C 94 % 1013,3 hPa 0,0 l/m 0 min 0 min 0 W/m 0,0 km/h (0 Bft) 97,87 %
10.01.2020 06:46 8,8 C 7,8 C 7,2 C 94 % 1013,3 hPa 0,0 l/m 0 min 0 min 0 W/m 0,0 km/h (0 Bft) 97,87 %
10.01.2020 06:48 8,8 C 7,8 C 7,2 C 94 % 1013,3 hPa 0,0 l/m 0 min 0 min 0 W/m 0,0 km/h (0 Bft) 95,74 %
10.01.2020 06:50 8,8 C 7,8 C 7,2 C 94 % 1013,3 hPa 0,0 l/m 0 min 0 min 0 W/m 0,0 km/h (0 Bft) 97,83 %
10.01.2020 06:52 8,8 C 7,8 C 7,2 C 94 % 1013,3 hPa 0,0 l/m 0 min 0 min 0 W/m 0,0 km/h (0 Bft) 97,87 %
10.01.2020 06:54 8,8 C 7,8 C 7,2 C 94 % 1013,4 hPa 0,0 l/m 0 min 0 min 0 W/m 0,0 km/h (0 Bft) 97,87 %
10.01.2020 06:56 8,8 C 7,8 C 7,2 C 94 % 1013,4 hPa 0,0 l/m 0 min 0 min 0 W/m 0,0 km/h (0 Bft) 97,87 %
10.01.2020 06:58 8,8 C 7,8 C 6,7 C 94 % 1013,4 hPa 0,0 l/m 0 min 0 min 0 W/m 0,0 km/h (0 Bft) 97,87 %
10.01.2020 07:00 8,8 C 7,8 C 6,7 C 94 % 1013,5 hPa 0,0 l/m 0 min 0 min 0 W/m 0,0 km/h (0 Bft) 97,87 %
10.01.2020 07:02 8,8 C 7,8 C 6,7 C 94 % 1013,5 hPa 0,0 l/m 0 min 0 min 0 W/m 0,0 km/h (0 Bft) 97,83 %
10.01.2020 07:04 8,8 C 7,8 C 6,7 C 94 % 1013,5 hPa 0,0 l/m 0 min 0 min 0 W/m 0,0 km/h (0 Bft) 95,74 %
10.01.2020 07:06 8,8 C 7,8 C 6,7 C 94 % 1013,5 hPa 0,0 l/m 0 min 0 min 0 W/m 0,0 km/h (0 Bft) 97,87 %
10.01.2020 07:08 8,8 C 7,8 C 6,7 C 94 % 1013,5 hPa 0,0 l/m 0 min 2 min 0 W/m 0,0 km/h (0 Bft) 97,87 %
10.01.2020 07:10 8,8 C 7,2 C 6,7 C 94 % 1013,5 hPa 0,0 l/m 0 min 2 min 0 W/m 0,0 km/h (0 Bft) 97,87 %
10.01.2020 07:12 8,8 C 7,2 C 6,7 C 94 % 1013,6 hPa 0,2 l/m 0 min 2 min 0 W/m 0,0 km/h (0 Bft) 97,87 %
10.01.2020 07:14 8,8 C 7,2 C 6,7 C 95 % 1013,7 hPa 0,0 l/m 0 min 2 min 0 W/m 0,0 km/h (0 Bft) 97,83 %
10.01.2020 07:16 8,8 C 7,2 C 6,7 C 95 % 1013,6 hPa 0,0 l/m 0 min 2 min 0 W/m 0,0 km/h (0 Bft) 100,00 %
10.01.2020 07:18 8,8 C 7,2 C 6,7 C 95 % 1013,6 hPa 0,0 l/m 0 min 2 min 0 W/m 0,0 km/h (0 Bft) 100,00 %
10.01.2020 07:20 8,8 C 7,2 C 6,7 C 95 % 1013,6 hPa 0,0 l/m 0 min 2 min 0 W/m 0,0 km/h (0 Bft) 100,00 %
10.01.2020 07:22 8,7 C 7,2 C 6,7 C 95 % 1013,6 hPa 0,0 l/m 0 min 2 min 0 W/m 0,0 km/h (0 Bft) 97,87 %
10.01.2020 07:24 8,7 C 7,2 C 6,7 C 94 % 1013,6 hPa 0,0 l/m 0 min 2 min 0 W/m 0,0 km/h (0 Bft) 100,00 %
10.01.2020 07:26 8,7 C 7,2 C 6,7 C 95 % 1013,7 hPa 0,0 l/m 0 min 2 min 0 W/m 0,0 km/h (0 Bft) 100,00 %
10.01.2020 07:28 8,7 C 7,2 C 6,7 C 95 % 1013,6 hPa 0,0 l/m 0 min 2 min 0 W/m 0,0 km/h (0 Bft) 100,00 %
10.01.2020 07:30 8,7 C 7,2 C 6,7 C 95 % 1013,7 hPa 0,0 l/m 0 min 2 min 0 W/m 0,0 km/h (0 Bft) 100,00 %
10.01.2020 07:32 8,7 C 7,2 C 6,7 C 95 % 1013,7 hPa 0,0 l/m 0 min 2 min 0 W/m 0,0 km/h (0 Bft) 93,62 %
10.01.2020 07:34 8,7 C 7,2 C 6,7 C 95 % 1013,7 hPa 0,2 l/m 0 min 2 min 0 W/m 0,0 km/h (0 Bft) 97,87 %
10.01.2020 07:36 8,7 C 7,2 C 6,7 C 95 % 1013,7 hPa 0,0 l/m 0 min 2 min 0 W/m 0,0 km/h (0 Bft) 100,00 %
10.01.2020 07:38 8,7 C 7,2 C 6,7 C 95 % 1013,7 hPa 0,0 l/m 0 min 2 min 0 W/m 0,0 km/h (0 Bft) 97,87 %
10.01.2020 07:40 8,7 C 7,2 C 6,7 C 95 % 1013,7 hPa 0,0 l/m 0 min 2 min 0 W/m 0,0 km/h (0 Bft) 95,74 %
10.01.2020 07:42 8,7 C 7,2 C 6,7 C 95 % 1013,7 hPa 0,0 l/m 0 min 2 min 0 W/m 0,0 km/h (0 Bft) 97,87 %
10.01.2020 07:44 8,7 C 7,2 C 6,7 C 95 % 1013,6 hPa 0,0 l/m 0 min 2 min 0 W/m 0,0 km/h (0 Bft) 97,87 %
10.01.2020 07:46 8,7 C 7,2 C 6,7 C 95 % 1013,7 hPa 0,0 l/m 0 min 2 min 0 W/m 0,0 km/h (0 Bft) 97,87 %
10.01.2020 07:48 8,7 C 7,2 C 6,7 C 95 % 1013,7 hPa 0,0 l/m 0 min 2 min 0 W/m 0,0 km/h (0 Bft) 97,83 %
10.01.2020 07:50 8,6 C 7,2 C 6,7 C 95 % 1013,7 hPa 0,0 l/m 0 min 0 min 0 W/m 0,0 km/h (0 Bft) 93,62 %
10.01.2020 07:52 8,6 C 7,2 C 6,7 C 95 % 1013,7 hPa 0,0 l/m 0 min 0 min 0 W/m 12,9 km/h (3 Bft) 97,87 %
10.01.2020 07:54 8,6 C 7,2 C 6,7 C 95 % 1013,7 hPa 0,0 l/m 0 min 0 min 0 W/m 3,2 km/h (1 Bft) 95,74 %
10.01.2020 07:56 8,6 C 7,2 C 6,7 C 95 % 1013,7 hPa 0,0 l/m 0 min 0 min 0 W/m 0,0 km/h (0 Bft) 95,74 %
10.01.2020 07:58 8,6 C 7,2 C 6,7 C 95 % 1013,7 hPa 0,0 l/m 0 min 0 min 0 W/m 0,0 km/h (0 Bft) 95,74 %
10.01.2020 08:00 8,6 C 7,2 C 6,7 C 95 % 1013,7 hPa 0,0 l/m 0 min 0 min 0 W/m 12,9 km/h (3 Bft) 93,48 %
10.01.2020 08:02 8,5 C 7,2 C 6,7 C 95 % 1013,7 hPa 0,0 l/m 0 min 0 min 0 W/m 16,1 km/h (3 Bft) 95,74 %
10.01.2020 08:04 8,5 C 7,2 C 6,7 C 95 % 1013,8 hPa 0,0 l/m 0 min 0 min 0 W/m 16,1 km/h (3 Bft) 95,74 %
10.01.2020 08:06 8,4 C 7,2 C 6,7 C 95 % 1013,9 hPa 0,0 l/m 0 min 0 min 0 W/m 16,1 km/h (3 Bft) 93,62 %
10.01.2020 08:08 8,4 C 7,2 C 6,7 C 95 % 1013,9 hPa 0,0 l/m 0 min 0 min 0 W/m 16,1 km/h (3 Bft) 95,74 %
10.01.2020 08:10 8,4 C 7,2 C 6,7 C 95 % 1014,0 hPa 0,0 l/m 0 min 0 min 0 W/m 12,9 km/h (3 Bft) 95,65 %
10.01.2020 08:12 8,4 C 7,2 C 6,7 C 95 % 1013,9 hPa 0,0 l/m 0 min 2 min 0 W/m 12,9 km/h (3 Bft) 95,74 %
10.01.2020 08:14 8,4 C 7,2 C 6,7 C 95 % 1014,0 hPa 0,0 l/m 0 min 2 min 0 W/m 16,1 km/h (3 Bft) 95,74 %
10.01.2020 08:16 8,4 C 6,7 C 6,7 C 96 % 1014,0 hPa 0,2 l/m 0 min 2 min 0 W/m 3,2 km/h (1 Bft) 93,62 %
10.01.2020 08:18 8,4 C 6,7 C 6,7 C 96 % 1013,9 hPa 0,0 l/m 0 min 2 min 0 W/m 16,1 km/h (3 Bft) 95,74 %
10.01.2020 08:20 8,3 C 6,7 C 6,7 C 96 % 1014,0 hPa 0,0 l/m 0 min 2 min 0 W/m 6,4 km/h (2 Bft) 95,74 %
10.01.2020 08:22 8,3 C 6,7 C 6,7 C 96 % 1014,0 hPa 0,2 l/m 0 min 2 min 0 W/m 9,7 km/h (2 Bft) 95,65 %
10.01.2020 08:24 8,3 C 6,7 C 6,7 C 96 % 1014,0 hPa 0,0 l/m 0 min 2 min 0 W/m 0,0 km/h (0 Bft) 97,87 %
10.01.2020 08:26 8,3 C 6,7 C 6,7 C 96 % 1014,1 hPa 0,2 l/m 0 min 2 min 0 W/m 0,0 km/h (0 Bft) 95,74 %
10.01.2020 08:28 8,3 C 6,7 C 6,7 C 96 % 1014,1 hPa 0,0 l/m 0 min 2 min 0 W/m 6,4 km/h (2 Bft) 97,87 %
10.01.2020 08:30 8,3 C 6,7 C 6,7 C 96 % 1014,1 hPa 0,0 l/m 0 min 2 min 0 W/m 6,4 km/h (2 Bft) 97,87 %
10.01.2020 08:32 8,3 C 6,7 C 6,7 C 96 % 1014,2 hPa 0,0 l/m 0 min 2 min 0 W/m 0,0 km/h (0 Bft) 97,87 %
10.01.2020 08:34 8,3 C 6,7 C 6,7 C 96 % 1014,2 hPa 0,2 l/m 0 min 2 min 0 W/m 3,2 km/h (1 Bft) 97,83 %
10.01.2020 08:36 8,3 C 6,7 C 6,7 C 96 % 1014,2 hPa 0,0 l/m 0 min 2 min 0 W/m 0,0 km/h (0 Bft) 97,87 %
10.01.2020 08:38 8,3 C 6,7 C 6,7 C 96 % 1014,2 hPa 0,0 l/m 0 min 2 min 0 W/m 12,9 km/h (3 Bft) 97,87 %
10.01.2020 08:40 8,2 C 6,7 C 6,7 C 96 % 1014,2 hPa 0,2 l/m 0 min 2 min 0 W/m 3,2 km/h (1 Bft) 100,00 %
10.01.2020 08:42 8,2 C 6,7 C 6,7 C 96 % 1014,2 hPa 0,0 l/m 0 min 2 min 0 W/m 6,4 km/h (2 Bft) 100,00 %
10.01.2020 08:44 8,2 C 6,7 C 6,7 C 96 % 1014,2 hPa 0,0 l/m 0 min 2 min 0 W/m 6,4 km/h (2 Bft) 100,00 %
10.01.2020 08:46 8,2 C 6,7 C 6,7 C 96 % 1014,2 hPa 0,2 l/m 0 min 2 min 0 W/m 6,4 km/h (2 Bft) 97,83 %
10.01.2020 08:48 8,2 C 6,7 C 6,7 C 96 % 1014,3 hPa 0,0 l/m 0 min 2 min 0 W/m 3,2 km/h (1 Bft) 100,00 %
10.01.2020 08:50 8,2 C 6,7 C 6,7 C 96 % 1014,4 hPa 0,0 l/m 0 min 2 min 0 W/m 3,2 km/h (1 Bft) 100,00 %
10.01.2020 08:52 8,2 C 6,7 C 6,7 C 96 % 1014,3 hPa 0,0 l/m 0 min 2 min 0 W/m 6,4 km/h (2 Bft) 100,00 %
10.01.2020 08:54 8,2 C 6,7 C 6,7 C 96 % 1014,3 hPa 0,0 l/m 0 min 0 min 0 W/m 6,4 km/h (2 Bft) 100,00 %
10.01.2020 08:56 8,1 C 6,7 C 6,7 C 97 % 1014,4 hPa 0,0 l/m 0 min 0 min 0 W/m 6,4 km/h (2 Bft) 97,87 %
10.01.2020 08:58 8,1 C 6,7 C 6,1 C 97 % 1014,4 hPa 0,0 l/m 0 min 2 min 0 W/m 3,2 km/h (1 Bft) 100,00 %
10.01.2020 09:00 8,1 C 6,7 C 6,1 C 97 % 1014,4 hPa 0,0 l/m 0 min 2 min 0 W/m 12,9 km/h (3 Bft) 100,00 %
10.01.2020 09:02 8,1 C 6,7 C 6,1 C 97 % 1014,4 hPa 0,0 l/m 0 min 2 min 0 W/m 3,2 km/h (1 Bft) 100,00 %
10.01.2020 09:04 8,1 C 6,7 C 6,1 C 96 % 1014,4 hPa 0,2 l/m 0 min 2 min 0 W/m 6,4 km/h (2 Bft) 97,87 %
10.01.2020 09:06 8,1 C 6,7 C 6,7 C 97 % 1014,4 hPa 0,0 l/m 0 min 0 min 0 W/m 0,0 km/h (0 Bft) 100,00 %
10.01.2020 09:08 8,1 C 6,7 C 6,7 C 97 % 1014,4 hPa 0,0 l/m 0 min 0 min 0 W/m 0,0 km/h (0 Bft) 100,00 %
10.01.2020 09:10 8,1 C 6,7 C 6,1 C 97 % 1014,4 hPa 0,0 l/m 0 min 0 min 0 W/m 3,2 km/h (1 Bft) 100,00 %
10.01.2020 09:12 8,1 C 6,7 C 6,1 C 97 % 1014,4 hPa 0,0 l/m 0 min 0 min 1 W/m 3,2 km/h (1 Bft) 100,00 %
10.01.2020 09:14 8,1 C 6,7 C 6,7 C 97 % 1014,4 hPa 0,0 l/m 0 min 2 min 6 W/m 0,0 km/h (0 Bft) 97,87 %
10.01.2020 09:16 8,1 C 6,7 C 6,1 C 97 % 1014,5 hPa 0,0 l/m 0 min 2 min 8 W/m 16,1 km/h (3 Bft) 97,87 %
10.01.2020 09:18 8,0 C 6,7 C 6,1 C 97 % 1014,4 hPa 0,0 l/m 0 min 2 min 9 W/m 3,2 km/h (1 Bft) 100,00 %
10.01.2020 09:20 8,0 C 6,7 C 6,1 C 97 % 1014,5 hPa 0,0 l/m 0 min 0 min 10 W/m 12,9 km/h (3 Bft) 100,00 %
10.01.2020 09:22 8,0 C 6,7 C 6,1 C 97 % 1014,5 hPa 0,0 l/m 0 min 0 min 11 W/m 12,9 km/h (3 Bft) 100,00 %
10.01.2020 09:24 8,0 C 6,7 C 6,1 C 97 % 1014,6 hPa 0,0 l/m 0 min 0 min 12 W/m 6,4 km/h (2 Bft) 100,00 %
10.01.2020 09:26 8,0 C 6,7 C 6,1 C 97 % 1014,6 hPa 0,0 l/m 0 min 0 min 16 W/m 3,2 km/h (1 Bft) 100,00 %
10.01.2020 09:28 8,0 C 6,7 C 6,1 C 97 % 1014,7 hPa 0,0 l/m 0 min 0 min 20 W/m 6,4 km/h (2 Bft) 100,00 %
10.01.2020 09:30 7,9 C 6,7 C 6,1 C 97 % 1014,7 hPa 0,0 l/m 0 min 0 min 25 W/m 9,7 km/h (2 Bft) 100,00 %
10.01.2020 09:32 7,9 C 6,7 C 6,7 C 97 % 1014,7 hPa 0,0 l/m 0 min 0 min 25 W/m 6,4 km/h (2 Bft) 100,00 %
10.01.2020 09:34 7,9 C 6,7 C 6,7 C 97 % 1014,7 hPa 0,0 l/m 0 min 0 min 24 W/m 6,4 km/h (2 Bft) 100,00 %
10.01.2020 09:36 7,9 C 6,7 C 6,7 C 97 % 1014,8 hPa 0,0 l/m 0 min 2 min 23 W/m 6,4 km/h (2 Bft) 100,00 %
10.01.2020 09:38 7,9 C 6,7 C 6,7 C 97 % 1014,8 hPa 0,0 l/m 0 min 0 min 21 W/m 0,0 km/h (0 Bft) 100,00 %
10.01.2020 09:40 7,9 C 6,7 C 6,7 C 97 % 1014,9 hPa 0,0 l/m 0 min 2 min 19 W/m 0,0 km/h (0 Bft) 97,87 %
10.01.2020 09:42 7,9 C 6,7 C 6,7 C 97 % 1014,9 hPa 0,0 l/m 0 min 2 min 18 W/m 0,0 km/h (0 Bft) 97,87 %
10.01.2020 09:44 7,9 C 6,7 C 6,7 C 97 % 1015,0 hPa 0,0 l/m 0 min 2 min 17 W/m 3,2 km/h (1 Bft) 97,83 %
10.01.2020 09:46 7,9 C 6,7 C 6,7 C 97 % 1015,1 hPa 0,0 l/m 0 min 2 min 16 W/m 0,0 km/h (0 Bft) 97,87 %
10.01.2020 09:48 7,9 C 6,7 C 6,7 C 97 % 1015,0 hPa 0,0 l/m 0 min 2 min 17 W/m 0,0 km/h (0 Bft) 97,87 %
10.01.2020 09:50 7,9 C 6,7 C 6,7 C 97 % 1015,1 hPa 0,0 l/m 0 min 2 min 20 W/m 0,0 km/h (0 Bft) 97,87 %
10.01.2020 09:52 7,9 C 6,7 C 6,7 C 97 % 1015,1 hPa 0,0 l/m 0 min 2 min 24 W/m 0,0 km/h (0 Bft) 97,87 %
10.01.2020 09:54 7,9 C 6,7 C 6,7 C 97 % 1015,1 hPa 0,0 l/m 0 min 2 min 25 W/m 0,0 km/h (0 Bft) 97,87 %
10.01.2020 09:56 7,9 C 6,7 C 6,7 C 97 % 1015,1 hPa 0,0 l/m 0 min 2 min 25 W/m 0,0 km/h (0 Bft) 95,65 %
10.01.2020 09:58 7,9 C 6,7 C 6,7 C 97 % 1015,1 hPa 0,0 l/m 0 min 2 min 28 W/m 0,0 km/h (0 Bft) 97,87 %
10.01.2020 10:00 7,9 C 6,7 C 6,7 C 97 % 1015,1 hPa 0,0 l/m 0 min 2 min 31 W/m 0,0 km/h (0 Bft) 97,87 %
10.01.2020 10:02 7,9 C 6,7 C 6,7 C 97 % 1015,2 hPa 0,0 l/m 0 min 2 min 33 W/m 0,0 km/h (0 Bft) 97,87 %
10.01.2020 10:04 7,9 C 6,7 C 6,7 C 98 % 1015,2 hPa 0,0 l/m 0 min 2 min 31 W/m 6,4 km/h (2 Bft) 97,87 %
10.01.2020 10:06 7,9 C 6,7 C 6,7 C 98 % 1015,3 hPa 0,0 l/m 0 min 2 min 28 W/m 3,2 km/h (1 Bft) 97,83 %
10.01.2020 10:08 7,9 C 6,7 C 6,7 C 98 % 1015,3 hPa 0,0 l/m 0 min 2 min 33 W/m 3,2 km/h (1 Bft) 95,74 %
10.01.2020 10:10 7,9 C 6,7 C 6,7 C 98 % 1015,3 hPa 0,0 l/m 0 min 2 min 38 W/m 0,0 km/h (0 Bft) 97,87 %
10.01.2020 10:12 7,9 C 7,2 C 6,7 C 98 % 1015,4 hPa 0,0 l/m 0 min 0 min 44 W/m 0,0 km/h (0 Bft) 97,87 %
10.01.2020 10:14 7,9 C 7,2 C 6,7 C 97 % 1015,4 hPa 0,0 l/m 0 min 0 min 55 W/m 0,0 km/h (0 Bft) 97,87 %
10.01.2020 10:16 7,9 C 7,2 C 6,7 C 97 % 1015,5 hPa 0,0 l/m 0 min 0 min 66 W/m 0,0 km/h (0 Bft) 97,87 %
10.01.2020 10:18 7,9 C 7,2 C 6,7 C 97 % 1015,5 hPa 0,0 l/m 0 min 0 min 60 W/m 6,4 km/h (2 Bft) 93,48 %
10.01.2020 10:20 8,0 C 7,2 C 6,7 C 98 % 1015,5 hPa 0,0 l/m 0 min 0 min 45 W/m 0,0 km/h (0 Bft) 97,87 %
10.01.2020 10:22 8,0 C 7,2 C 6,7 C 98 % 1015,6 hPa 0,0 l/m 0 min 0 min 39 W/m 0,0 km/h (0 Bft) 97,87 %
10.01.2020 10:24 8,0 C 7,2 C 6,7 C 98 % 1015,6 hPa 0,0 l/m 0 min 0 min 44 W/m 0,0 km/h (0 Bft) 97,87 %
10.01.2020 10:26 8,0 C 7,2 C 6,7 C 98 % 1015,6 hPa 0,0 l/m 0 min 0 min 56 W/m 0,0 km/h (0 Bft) 93,62 %
10.01.2020 10:28 8,0 C 7,2 C 6,7 C 98 % 1015,6 hPa 0,0 l/m 0 min 0 min 64 W/m 0,0 km/h (0 Bft) 95,74 %
10.01.2020 10:30 8,0 C 7,2 C 6,7 C 98 % 1015,8 hPa 0,0 l/m 0 min 0 min 64 W/m 0,0 km/h (0 Bft) 93,48 %
10.01.2020 10:32 8,1 C 7,2 C 6,7 C 98 % 1015,8 hPa 0,0 l/m 0 min 0 min 68 W/m 0,0 km/h (0 Bft) 95,74 %
10.01.2020 10:34 8,1 C 7,2 C 6,7 C 98 % 1015,8 hPa 0,0 l/m 0 min 0 min 40 W/m 0,0 km/h (0 Bft) 93,62 %
10.01.2020 10:36 8,1 C 7,2 C 6,7 C 98 % 1015,9 hPa 0,0 l/m 0 min 0 min 34 W/m 6,4 km/h (2 Bft) 93,62 %
10.01.2020 10:38 8,1 C 7,2 C 6,7 C 98 % 1016,0 hPa 0,0 l/m 0 min 0 min 30 W/m 6,4 km/h (2 Bft) 93,62 %
10.01.2020 10:40 8,1 C 7,2 C 6,7 C 98 % 1016,0 hPa 0,0 l/m 0 min 0 min 38 W/m 6,4 km/h (2 Bft) 95,74 %
10.01.2020 10:42 8,1 C 7,2 C 6,7 C 98 % 1016,0 hPa 0,0 l/m 0 min 0 min 41 W/m 3,2 km/h (1 Bft) 93,48 %
10.01.2020 10:44 8,1 C 7,2 C 6,7 C 98 % 1016,0 hPa 0,0 l/m 0 min 0 min 61 W/m 3,2 km/h (1 Bft) 93,62 %
10.01.2020 10:46 8,1 C 7,2 C 6,7 C 98 % 1016,0 hPa 0,0 l/m 0 min 0 min 90 W/m 3,2 km/h (1 Bft) 91,49 %
10.01.2020 10:48 8,1 C 7,8 C 6,7 C 98 % 1016,1 hPa 0,0 l/m 2 min 0 min 128 W/m 3,2 km/h (1 Bft) 93,62 %
10.01.2020 10:50 8,1 C 8,3 C 6,7 C 98 % 1016,1 hPa 0,0 l/m 0 min 0 min 122 W/m 3,2 km/h (1 Bft) 95,74 %
10.01.2020 10:52 8,1 C 7,8 C 6,7 C 98 % 1016,2 hPa 0,0 l/m 0 min 0 min 85 W/m 0,0 km/h (0 Bft) 85,11 %
10.01.2020 10:54 8,1 C 7,8 C 6,7 C 98 % 1016,2 hPa 0,0 l/m 0 min 0 min 96 W/m 6,4 km/h (2 Bft) 60,00 %
10.01.2020 10:56 8,2 C 7,8 C 6,7 C 98 % 1016,3 hPa 0,0 l/m 0 min 0 min 95 W/m 12,9 km/h (3 Bft) 95,74 %
10.01.2020 10:58 8,2 C 7,8 C 7,2 C 98 % 1016,3 hPa 0,0 l/m 0 min 0 min 94 W/m 3,2 km/h (1 Bft) 95,74 %
10.01.2020 11:00 8,2 C 7,8 C 7,2 C 98 % 1016,3 hPa 0,0 l/m 0 min 0 min 74 W/m 3,2 km/h (1 Bft) 95,74 %
10.01.2020 11:02 8,2 C 7,8 C 7,2 C 98 % 1016,3 hPa 0,0 l/m 0 min 0 min 56 W/m 6,4 km/h (2 Bft) 93,62 %
10.01.2020 11:04 8,2 C 7,8 C 7,2 C 98 % 1016,4 hPa 0,0 l/m 0 min 0 min 51 W/m 3,2 km/h (1 Bft) 95,74 %
10.01.2020 11:06 8,2 C 7,2 C 7,2 C 98 % 1016,4 hPa 0,0 l/m 0 min 0 min 43 W/m 3,2 km/h (1 Bft) 95,65 %
10.01.2020 11:08 8,2 C 7,2 C 6,7 C 98 % 1016,4 hPa 0,0 l/m 0 min 0 min 33 W/m 0,0 km/h (0 Bft) 95,74 %
10.01.2020 11:10 8,2 C 7,2 C 6,7 C 98 % 1016,4 hPa 0,0 l/m 0 min 0 min 33 W/m 3,2 km/h (1 Bft) 97,87 %
10.01.2020 11:12 8,2 C 7,2 C 6,7 C 98 % 1016,5 hPa 0,0 l/m 0 min 0 min 28 W/m 0,0 km/h (0 Bft) 95,74 %
10.01.2020 11:14 8,2 C 7,2 C 6,7 C 98 % 1016,5 hPa 0,0 l/m 0 min 0 min 23 W/m 3,2 km/h (1 Bft) 97,87 %
10.01.2020 11:16 8,2 C 7,2 C 6,7 C 98 % 1016,6 hPa 0,0 l/m 0 min 0 min 25 W/m 3,2 km/h (1 Bft) 97,83 %
10.01.2020 11:18 8,2 C 7,2 C 6,7 C 98 % 1016,7 hPa 0,0 l/m 0 min 0 min 28 W/m 6,4 km/h (2 Bft) 97,87 %
10.01.2020 11:20 8,2 C 7,2 C 6,7 C 98 % 1016,7 hPa 0,0 l/m 0 min 0 min 32 W/m 0,0 km/h (0 Bft) 100,00 %
10.01.2020 11:22 8,2 C 7,2 C 6,7 C 98 % 1016,7 hPa 0,0 l/m 0 min 0 min 31 W/m 0,0 km/h (0 Bft) 100,00 %
10.01.2020 11:24 8,2 C 7,2 C 6,7 C 98 % 1016,7 hPa 0,0 l/m 0 min 0 min 33 W/m 0,0 km/h (0 Bft) 100,00 %
10.01.2020 11:26 8,2 C 7,2 C 6,7 C 98 % 1016,8 hPa 0,0 l/m 0 min 0 min 45 W/m 6,4 km/h (2 Bft) 100,00 %
10.01.2020 11:28 8,2 C 7,2 C 7,2 C 98 % 1016,8 hPa 0,0 l/m 0 min 0 min 53 W/m 12,9 km/h (3 Bft) 100,00 %
10.01.2020 11:30 8,2 C 7,8 C 7,2 C 98 % 1016,7 hPa 0,0 l/m 0 min 0 min 65 W/m 3,2 km/h (1 Bft) 100,00 %
10.01.2020 11:32 8,2 C 7,8 C 7,2 C 98 % 1016,7 hPa 0,0 l/m 0 min 0 min 67 W/m 16,1 km/h (3 Bft) 100,00 %
10.01.2020 11:34 8,2 C 7,8 C 7,2 C 98 % 1016,8 hPa 0,0 l/m 0 min 0 min 57 W/m 3,2 km/h (1 Bft) 100,00 %
10.01.2020 11:36 8,2 C 7,8 C 7,2 C 98 % 1016,9 hPa 0,0 l/m 0 min 0 min 55 W/m 0,0 km/h (0 Bft) 100,00 %
10.01.2020 11:38 8,2 C 7,2 C 7,2 C 98 % 1016,9 hPa 0,0 l/m 0 min 0 min 49 W/m 9,7 km/h (2 Bft) 100,00 %
10.01.2020 11:40 8,2 C 7,2 C 7,2 C 98 % 1016,9 hPa 0,0 l/m 0 min 0 min 48 W/m 0,0 km/h (0 Bft) 100,00 %
10.01.2020 11:42 8,2 C 7,2 C 7,2 C 98 % 1017,0 hPa 0,0 l/m 0 min 0 min 55 W/m 0,0 km/h (0 Bft) 100,00 %
10.01.2020 11:44 8,2 C 7,2 C 7,2 C 98 % 1017,0 hPa 0,0 l/m 0 min 0 min 46 W/m 0,0 km/h (0 Bft) 100,00 %
10.01.2020 11:46 8,2 C 7,2 C 7,2 C 98 % 1017,1 hPa 0,0 l/m 0 min 0 min 42 W/m 0,0 km/h (0 Bft) 100,00 %
10.01.2020 11:48 8,2 C 7,2 C 6,7 C 98 % 1017,1 hPa 0,0 l/m 0 min 0 min 44 W/m 0,0 km/h (0 Bft) 100,00 %
10.01.2020 11:50 8,2 C 7,2 C 6,7 C 98 % 1017,2 hPa 0,0 l/m 0 min 0 min 50 W/m 3,2 km/h (1 Bft) 100,00 %
10.01.2020 11:52 8,2 C 7,2 C 7,2 C 98 % 1017,2 hPa 0,0 l/m 0 min 0 min 61 W/m 0,0 km/h (0 Bft) 100,00 %
10.01.2020 11:54 8,2 C 7,2 C 7,2 C 98 % 1017,2 hPa 0,0 l/m 0 min 0 min 55 W/m 0,0 km/h (0 Bft) 100,00 %
10.01.2020 11:56 8,2 C 7,2 C 7,2 C 98 % 1017,2 hPa 0,0 l/m 0 min 0 min 48 W/m 0,0 km/h (0 Bft) 100,00 %
10.01.2020 11:58 8,2 C 7,2 C 7,2 C 98 % 1017,2 hPa 0,0 l/m 0 min 0 min 51 W/m 0,0 km/h (0 Bft) 100,00 %
10.01.2020 12:00 8,2 C 7,8 C 7,2 C 98 % 1017,3 hPa 0,0 l/m 0 min 0 min 58 W/m 0,0 km/h (0 Bft) 100,00 %
10.01.2020 12:02 8,2 C 7,8 C 7,2 C 98 % 1017,3 hPa 0,0 l/m 0 min 0 min 64 W/m 0,0 km/h (0 Bft) 100,00 %
10.01.2020 12:04 8,2 C 7,2 C 7,2 C 98 % 1017,3 hPa 0,0 l/m 0 min 0 min 46 W/m 0,0 km/h (0 Bft) 100,00 %
10.01.2020 12:06 8,2 C 7,2 C 6,7 C 98 % 1017,3 hPa 0,0 l/m 0 min 0 min 37 W/m 0,0 km/h (0 Bft) 97,87 %
10.01.2020 12:08 8,2 C 7,2 C 6,7 C 98 % 1017,3 hPa 0,0 l/m 0 min 0 min 26 W/m 0,0 km/h (0 Bft) 100,00 %
10.01.2020 12:10 8,2 C 7,2 C 6,7 C 98 % 1017,4 hPa 0,0 l/m 0 min 0 min 25 W/m 6,4 km/h (2 Bft) 100,00 %
10.01.2020 12:12 8,2 C 7,2 C 6,7 C 98 % 1017,5 hPa 0,0 l/m 0 min 0 min 32 W/m 6,4 km/h (2 Bft) 100,00 %
10.01.2020 12:14 8,2 C 7,2 C 6,7 C 98 % 1017,5 hPa 0,0 l/m 0 min 0 min 39 W/m 3,2 km/h (1 Bft) 100,00 %
10.01.2020 12:16 8,2 C 7,2 C 6,7 C 97 % 1017,6 hPa 0,0 l/m 0 min 0 min 52 W/m 3,2 km/h (1 Bft) 100,00 %
10.01.2020 12:18 8,2 C 7,2 C 6,7 C 97 % 1017,6 hPa 0,0 l/m 0 min 0 min 68 W/m 6,4 km/h (2 Bft) 100,00 %
10.01.2020 12:20 8,2 C 7,8 C 7,2 C 97 % 1017,6 hPa 0,0 l/m 0 min 0 min 99 W/m 0,0 km/h (0 Bft) 100,00 %
10.01.2020 12:22 8,2 C 7,8 C 7,2 C 97 % 1017,7 hPa 0,0 l/m 0 min 0 min 80 W/m 0,0 km/h (0 Bft) 100,00 %
10.01.2020 12:24 8,2 C 7,8 C 7,2 C 97 % 1017,7 hPa 0,0 l/m 0 min 0 min 78 W/m 6,4 km/h (2 Bft) 100,00 %
10.01.2020 12:26 8,2 C 7,8 C 7,2 C 97 % 1017,7 hPa 0,0 l/m 0 min 0 min 70 W/m 3,2 km/h (1 Bft) 97,87 %
10.01.2020 12:28 8,2 C 7,8 C 7,2 C 97 % 1017,8 hPa 0,0 l/m 0 min 0 min 66 W/m 6,4 km/h (2 Bft) 100,00 %
10.01.2020 12:30 8,2 C 7,8 C 7,2 C 97 % 1017,8 hPa 0,0 l/m 0 min 0 min 62 W/m 6,4 km/h (2 Bft) 100,00 %
10.01.2020 12:32 8,3 C 7,8 C 7,2 C 97 % 1017,9 hPa 0,0 l/m 0 min 0 min 54 W/m 9,7 km/h (2 Bft) 100,00 %
10.01.2020 12:34 8,3 C 7,8 C 7,2 C 97 % 1018,0 hPa 0,0 l/m 0 min 0 min 36 W/m 12,9 km/h (3 Bft) 97,87 %
10.01.2020 12:36 8,3 C 7,2 C 7,2 C 97 % 1018,0 hPa 0,0 l/m 0 min 0 min 43 W/m 12,9 km/h (3 Bft) 97,87 %
10.01.2020 12:38 8,3 C 7,2 C 7,2 C 97 % 1018,0 hPa 0,0 l/m 0 min 0 min 52 W/m 0,0 km/h (0 Bft) 100,00 %
10.01.2020 12:40 8,3 C 7,2 C 7,2 C 97 % 1018,1 hPa 0,0 l/m 0 min 0 min 63 W/m 12,9 km/h (3 Bft) 100,00 %
10.01.2020 12:42 8,3 C 7,2 C 7,2 C 97 % 1018,2 hPa 0,0 l/m 0 min 0 min 56 W/m 3,2 km/h (1 Bft) 100,00 %
10.01.2020 12:44 8,3 C 7,8 C 7,2 C 97 % 1018,2 hPa 0,0 l/m 0 min 0 min 66 W/m 0,0 km/h (0 Bft) 100,00 %
10.01.2020 12:46 8,3 C 7,8 C 7,2 C 97 % 1018,1 hPa 0,0 l/m 0 min 0 min 80 W/m 12,9 km/h (3 Bft) 100,00 %
10.01.2020 12:48 8,3 C 7,8 C 7,2 C 97 % 1018,2 hPa 0,0 l/m 0 min 0 min 67 W/m 0,0 km/h (0 Bft) 100,00 %
10.01.2020 12:50 8,3 C 7,8 C 7,2 C 97 % 1018,1 hPa 0,0 l/m 0 min 0 min 61 W/m 3,2 km/h (1 Bft) 100,00 %
10.01.2020 12:52 8,3 C 7,8 C 7,2 C 97 % 1018,2 hPa 0,0 l/m 0 min 0 min 66 W/m 3,2 km/h (1 Bft) 97,87 %
10.01.2020 12:54 8,3 C 7,8 C 7,2 C 97 % 1018,2 hPa 0,0 l/m 0 min 0 min 64 W/m 3,2 km/h (1 Bft) 97,87 %
10.01.2020 12:56 8,3 C 7,8 C 7,2 C 97 % 1018,2 hPa 0,0 l/m 0 min 0 min 63 W/m 0,0 km/h (0 Bft) 97,87 %
10.01.2020 12:58 8,4 C 7,8 C 7,2 C 97 % 1018,3 hPa 0,0 l/m 0 min 0 min 68 W/m 0,0 km/h (0 Bft) 93,62 %
10.01.2020 13:00 8,4 C 7,8 C 7,2 C 97 % 1018,4 hPa 0,0 l/m 0 min 0 min 68 W/m 3,2 km/h (1 Bft) 95,74 %
10.01.2020 13:02 8,4 C 7,8 C 7,2 C 97 % 1018,4 hPa 0,0 l/m 0 min 0 min 66 W/m 3,2 km/h (1 Bft) 91,30 %
10.01.2020 13:04 8,4 C 7,8 C 7,2 C 97 % 1018,4 hPa 0,0 l/m 0 min 0 min 66 W/m 0,0 km/h (0 Bft) 93,62 %
10.01.2020 13:06 8,4 C 7,8 C 7,2 C 97 % 1018,4 hPa 0,0 l/m 0 min 0 min 61 W/m 9,7 km/h (2 Bft) 93,62 %
10.01.2020 13:08 8,4 C 7,8 C 7,2 C 97 % 1018,4 hPa 0,0 l/m 0 min 0 min 54 W/m 0,0 km/h (0 Bft) 93,62 %
10.01.2020 13:10 8,4 C 7,8 C 7,2 C 97 % 1018,5 hPa 0,0 l/m 0 min 0 min 49 W/m 0,0 km/h (0 Bft) 95,74 %
10.01.2020 13:12 8,4 C 7,2 C 7,2 C 97 % 1018,6 hPa 0,0 l/m 0 min 0 min 42 W/m 12,9 km/h (3 Bft) 93,48 %
10.01.2020 13:14 8,4 C 7,2 C 7,2 C 97 % 1018,6 hPa 0,0 l/m 0 min 0 min 37 W/m 0,0 km/h (0 Bft) 93,62 %
10.01.2020 13:16 8,4 C 7,8 C 7,2 C 97 % 1018,6 hPa 0,0 l/m 0 min 0 min 43 W/m 0,0 km/h (0 Bft) 93,62 %
10.01.2020 13:18 8,4 C 7,2 C 7,2 C 97 % 1018,7 hPa 0,0 l/m 0 min 0 min 52 W/m 9,7 km/h (2 Bft) 95,74 %
10.01.2020 13:20 8,3 C 7,2 C 7,2 C 97 % 1018,8 hPa 0,0 l/m 0 min 0 min 56 W/m 9,7 km/h (2 Bft) 91,49 %
10.01.2020 13:22 8,3 C 7,8 C 7,2 C 97 % 1018,8 hPa 0,0 l/m 0 min 0 min 51 W/m 0,0 km/h (0 Bft) 93,62 %
10.01.2020 13:24 8,3 C 7,8 C 7,2 C 97 % 1018,8 hPa 0,0 l/m 0 min 0 min 39 W/m 0,0 km/h (0 Bft) 93,48 %
10.01.2020 13:26 8,3 C 7,2 C 7,2 C 97 % 1018,8 hPa 0,0 l/m 0 min 0 min 39 W/m 12,9 km/h (3 Bft) 95,83 %
10.01.2020 13:28 8,3 C 7,2 C 7,2 C 97 % 1018,9 hPa 0,0 l/m 0 min 0 min 50 W/m 3,2 km/h (1 Bft) 91,49 %
10.01.2020 13:30 8,3 C 7,2 C 7,2 C 97 % 1018,9 hPa 0,0 l/m 0 min 0 min 52 W/m 0,0 km/h (0 Bft) 93,62 %
10.01.2020 13:32 8,3 C 7,2 C 7,2 C 97 % 1019,0 hPa 0,0 l/m 0 min 0 min 49 W/m 12,9 km/h (3 Bft) 93,62 %
10.01.2020 13:34 8,3 C 7,2 C 7,2 C 97 % 1019,1 hPa 0,0 l/m 0 min 0 min 54 W/m 19,3 km/h (3 Bft) 93,62 %
10.01.2020 13:36 8,3 C 7,2 C 7,2 C 97 % 1019,1 hPa 0,0 l/m 0 min 0 min 65 W/m 19,3 km/h (3 Bft) 95,65 %
10.01.2020 13:38 8,3 C 7,8 C 7,2 C 97 % 1019,1 hPa 0,0 l/m 0 min 0 min 72 W/m 0,0 km/h (0 Bft) 87,23 %
10.01.2020 13:40 8,3 C 7,8 C 7,2 C 97 % 1019,2 hPa 0,0 l/m 0 min 0 min 66 W/m 6,4 km/h (2 Bft) 93,62 %
10.01.2020 13:42 8,3 C 7,8 C 7,2 C 97 % 1019,3 hPa 0,0 l/m 0 min 0 min 50 W/m 19,3 km/h (3 Bft) 95,74 %
10.01.2020 13:44 8,3 C 7,8 C 7,2 C 97 % 1019,3 hPa 0,0 l/m 0 min 0 min 46 W/m 3,2 km/h (1 Bft) 95,74 %
10.01.2020 13:46 8,3 C 7,8 C 7,2 C 97 % 1019,3 hPa 0,0 l/m 0 min 0 min 45 W/m 6,4 km/h (2 Bft) 97,87 %
10.01.2020 13:48 8,3 C 7,2 C 7,2 C 97 % 1019,4 hPa 0,0 l/m 0 min 0 min 48 W/m 6,4 km/h (2 Bft) 97,83 %
10.01.2020 13:50 8,3 C 7,2 C 7,2 C 97 % 1019,4 hPa 0,0 l/m 0 min 0 min 45 W/m 0,0 km/h (0 Bft) 95,74 %
10.01.2020 13:52 8,3 C 7,2 C 7,2 C 96 % 1019,5 hPa 0,0 l/m 0 min 0 min 44 W/m 16,1 km/h (3 Bft) 97,87 %
10.01.2020 13:54 8,3 C 7,2 C 7,2 C 96 % 1019,5 hPa 0,0 l/m 0 min 0 min 41 W/m 6,4 km/h (2 Bft) 97,87 %
10.01.2020 13:56 8,3 C 7,2 C 7,2 C 96 % 1019,6 hPa 0,0 l/m 0 min 0 min 30 W/m 3,2 km/h (1 Bft) 97,87 %
10.01.2020 13:58 8,3 C 7,2 C 7,2 C 96 % 1019,7 hPa 0,0 l/m 0 min 0 min 29 W/m 12,9 km/h (3 Bft) 97,83 %
10.01.2020 14:00 8,3 C 7,2 C 6,7 C 96 % 1019,7 hPa 0,0 l/m 0 min 0 min 30 W/m 6,4 km/h (2 Bft) 95,74 %
10.01.2020 14:02 8,3 C 7,2 C 6,7 C 96 % 1019,8 hPa 0,0 l/m 0 min 0 min 27 W/m 3,2 km/h (1 Bft) 97,87 %
10.01.2020 14:04 8,3 C 7,2 C 7,2 C 96 % 1019,9 hPa 0,0 l/m 0 min 0 min 28 W/m 9,7 km/h (2 Bft) 97,87 %
10.01.2020 14:06 8,3 C 7,2 C 7,2 C 96 % 1019,9 hPa 0,0 l/m 0 min 0 min 29 W/m 0,0 km/h (0 Bft) 97,87 %
10.01.2020 14:08 8,3 C 7,2 C 7,2 C 96 % 1019,9 hPa 0,0 l/m 0 min 0 min 26 W/m 6,4 km/h (2 Bft) 97,87 %
10.01.2020 14:10 8,3 C 7,2 C 7,2 C 96 % 1020,0 hPa 0,0 l/m 0 min 0 min 29 W/m 6,4 km/h (2 Bft) 95,65 %
10.01.2020 14:12 8,3 C 7,2 C 7,2 C 96 % 1020,1 hPa 0,0 l/m 0 min 0 min 22 W/m 9,7 km/h (2 Bft) 97,87 %
10.01.2020 14:14 8,3 C 7,2 C 7,2 C 96 % 1020,1 hPa 0,0 l/m 0 min 0 min 20 W/m 6,4 km/h (2 Bft) 97,87 %
10.01.2020 14:16 8,3 C 7,2 C 7,2 C 96 % 1020,3 hPa 0,0 l/m 0 min 0 min 17 W/m 3,2 km/h (1 Bft) 100,00 %
10.01.2020 14:18 8,3 C 7,2 C 7,2 C 96 % 1020,3 hPa 0,0 l/m 0 min 0 min 16 W/m 3,2 km/h (1 Bft) 100,00 %
10.01.2020 14:20 8,3 C 7,2 C 7,2 C 96 % 1020,3 hPa 0,0 l/m 0 min 0 min 16 W/m 3,2 km/h (1 Bft) 55,56 %
10.01.2020 14:22 8,3 C 7,2 C 6,7 C 96 % 1020,5 hPa 0,0 l/m 0 min 2 min 11 W/m 22,5 km/h (4 Bft) 100,00 %
10.01.2020 14:24 8,2 C 6,7 C 6,7 C 96 % 1020,4 hPa 0,0 l/m 0 min 2 min 14 W/m 25,7 km/h (4 Bft) 100,00 %
10.01.2020 14:26 8,2 C 6,7 C 6,7 C 96 % 1020,4 hPa 0,0 l/m 0 min 2 min 16 W/m 25,7 km/h (4 Bft) 97,87 %
10.01.2020 14:28 8,1 C 6,7 C 6,7 C 96 % 1020,4 hPa 0,0 l/m 0 min 2 min 30 W/m 35,4 km/h (5 Bft) 100,00 %
10.01.2020 14:30 8,1 C 6,7 C 6,7 C 96 % 1020,5 hPa 0,0 l/m 0 min 2 min 33 W/m 12,9 km/h (3 Bft) 100,00 %
10.01.2020 14:32 8,1 C 6,7 C 6,7 C 96 % 1020,5 hPa 0,0 l/m 0 min 0 min 28 W/m 22,5 km/h (4 Bft) 97,87 %
10.01.2020 14:34 8,0 C 6,7 C 6,7 C 96 % 1020,6 hPa 0,0 l/m 0 min 0 min 27 W/m 22,5 km/h (4 Bft) 100,00 %
10.01.2020 14:36 8,0 C 6,7 C 6,7 C 96 % 1020,6 hPa 0,0 l/m 0 min 0 min 29 W/m 29,0 km/h (5 Bft) 100,00 %
10.01.2020 14:38 8,0 C 6,7 C 6,7 C 96 % 1020,7 hPa 0,0 l/m 0 min 0 min 28 W/m 19,3 km/h (3 Bft) 97,87 %
10.01.2020 14:40 7,9 C 6,7 C 6,7 C 96 % 1020,8 hPa 0,0 l/m 0 min 0 min 26 W/m 22,5 km/h (4 Bft) 100,00 %
10.01.2020 14:42 7,9 C 6,7 C 6,7 C 96 % 1020,8 hPa 0,0 l/m 0 min 0 min 28 W/m 25,7 km/h (4 Bft) 100,00 %
10.01.2020 14:44 7,9 C 6,7 C 6,7 C 96 % 1020,8 hPa 0,0 l/m 0 min 0 min 29 W/m 22,5 km/h (4 Bft) 100,00 %
10.01.2020 14:46 7,9 C 6,7 C 6,7 C 96 % 1020,9 hPa 0,0 l/m 0 min 0 min 27 W/m 16,1 km/h (3 Bft) 100,00 %
10.01.2020 14:48 7,9 C 6,7 C 6,7 C 96 % 1021,0 hPa 0,0 l/m 0 min 0 min 25 W/m 16,1 km/h (3 Bft) 100,00 %
10.01.2020 14:50 7,9 C 6,7 C 6,7 C 96 % 1021,0 hPa 0,0 l/m 0 min 0 min 23 W/m 19,3 km/h (3 Bft) 100,00 %
10.01.2020 14:52 7,8 C 6,7 C 6,7 C 96 % 1021,1 hPa 0,0 l/m 0 min 0 min 23 W/m 12,9 km/h (3 Bft) 100,00 %
10.01.2020 14:54 7,8 C 6,7 C 6,7 C 96 % 1021,1 hPa 0,0 l/m 0 min 0 min 24 W/m 22,5 km/h (4 Bft) 100,00 %
10.01.2020 14:56 7,8 C 6,7 C 6,7 C 96 % 1021,1 hPa 0,0 l/m 0 min 0 min 25 W/m 12,9 km/h (3 Bft) 100,00 %
10.01.2020 14:58 7,8 C 6,7 C 6,7 C 96 % 1021,1 hPa 0,0 l/m 0 min 0 min 23 W/m 16,1 km/h (3 Bft) 97,87 %
10.01.2020 15:00 7,8 C 6,7 C 6,7 C 96 % 1021,2 hPa 0,0 l/m 0 min 0 min 25 W/m 16,1 km/h (3 Bft) 100,00 %
10.01.2020 15:02 7,7 C 6,7 C 6,7 C 96 % 1021,2 hPa 0,0 l/m 0 min 0 min 25 W/m 22,5 km/h (4 Bft) 97,87 %
10.01.2020 15:04 7,7 C 6,7 C 6,7 C 96 % 1021,3 hPa 0,0 l/m 0 min 0 min 25 W/m 22,5 km/h (4 Bft) 100,00 %
10.01.2020 15:06 7,7 C 6,7 C 6,7 C 96 % 1021,4 hPa 0,0 l/m 0 min 0 min 27 W/m 19,3 km/h (3 Bft) 100,00 %
10.01.2020 15:08 7,7 C 6,7 C 6,7 C 96 % 1021,5 hPa 0,0 l/m 0 min 0 min 28 W/m 19,3 km/h (3 Bft) 100,00 %
10.01.2020 15:10 7,7 C 6,7 C 6,7 C 96 % 1021,4 hPa 0,0 l/m 0 min 0 min 29 W/m 19,3 km/h (3 Bft) 100,00 %
10.01.2020 15:12 7,6 C 6,7 C 6,7 C 96 % 1021,5 hPa 0,0 l/m 0 min 0 min 31 W/m 16,1 km/h (3 Bft) 100,00 %
10.01.2020 15:14 7,6 C 6,7 C 6,7 C 96 % 1021,6 hPa 0,0 l/m 0 min 0 min 32 W/m 16,1 km/h (3 Bft) 100,00 %
10.01.2020 15:16 7,6 C 6,7 C 6,7 C 96 % 1021,6 hPa 0,0 l/m 0 min 0 min 33 W/m 16,1 km/h (3 Bft) 100,00 %
10.01.2020 15:18 7,6 C 6,7 C 6,7 C 96 % 1021,6 hPa 0,0 l/m 0 min 0 min 35 W/m 16,1 km/h (3 Bft) 97,87 %
10.01.2020 15:20 7,6 C 6,7 C 6,7 C 96 % 1021,7 hPa 0,0 l/m 0 min 0 min 36 W/m 16,1 km/h (3 Bft) 100,00 %
10.01.2020 15:22 7,6 C 6,7 C 6,7 C 96 % 1021,7 hPa 0,0 l/m 0 min 0 min 43 W/m 16,1 km/h (3 Bft) 97,87 %
10.01.2020 15:24 7,6 C 6,7 C 6,7 C 96 % 1021,9 hPa 0,0 l/m 0 min 0 min 60 W/m 19,3 km/h (3 Bft) 100,00 %
10.01.2020 15:26 7,6 C 6,7 C 6,7 C 96 % 1021,9 hPa 0,0 l/m 0 min 0 min 64 W/m 12,9 km/h (3 Bft) 100,00 %
10.01.2020 15:28 7,6 C 6,7 C 6,7 C 96 % 1022,0 hPa 0,0 l/m 0 min 0 min 42 W/m 16,1 km/h (3 Bft) 100,00 %
10.01.2020 15:30 7,6 C 6,7 C 6,7 C 96 % 1022,1 hPa 0,0 l/m 0 min 0 min 27 W/m 16,1 km/h (3 Bft) 100,00 %
10.01.2020 15:32 7,6 C 6,7 C 6,7 C 96 % 1022,1 hPa 0,0 l/m 0 min 0 min 20 W/m 22,5 km/h (4 Bft) 100,00 %
10.01.2020 15:34 7,6 C 6,7 C 6,7 C 96 % 1022,2 hPa 0,0 l/m 0 min 0 min 28 W/m 32,2 km/h (5 Bft) 97,87 %
10.01.2020 15:36 7,6 C 6,7 C 6,7 C 96 % 1022,2 hPa 0,0 l/m 0 min 0 min 30 W/m 16,1 km/h (3 Bft) 97,87 %
10.01.2020 15:38 7,5 C 6,7 C 6,1 C 96 % 1022,4 hPa 0,0 l/m 0 min 0 min 31 W/m 12,9 km/h (3 Bft) 95,74 %
10.01.2020 15:40 7,5 C 6,7 C 6,7 C 96 % 1022,4 hPa 0,0 l/m 0 min 0 min 36 W/m 25,7 km/h (4 Bft) 97,87 %
10.01.2020 15:42 7,5 C 6,7 C 6,7 C 96 % 1022,5 hPa 0,0 l/m 0 min 0 min 40 W/m 25,7 km/h (4 Bft) 97,87 %
10.01.2020 15:44 7,4 C 6,7 C 6,7 C 96 % 1022,6 hPa 0,0 l/m 0 min 0 min 35 W/m 22,5 km/h (4 Bft) 95,65 %
10.01.2020 15:46 7,4 C 6,7 C 6,7 C 95 % 1022,7 hPa 0,0 l/m 0 min 0 min 27 W/m 19,3 km/h (3 Bft) 97,87 %
10.01.2020 15:48 7,4 C 6,7 C 6,7 C 95 % 1022,7 hPa 0,0 l/m 0 min 0 min 26 W/m 16,1 km/h (3 Bft) 97,87 %
10.01.2020 15:50 7,4 C 6,7 C 6,7 C 95 % 1022,7 hPa 0,0 l/m 0 min 0 min 22 W/m 16,1 km/h (3 Bft) 97,87 %
10.01.2020 15:52 7,4 C 6,1 C 6,1 C 95 % 1022,8 hPa 0,0 l/m 0 min 0 min 19 W/m 16,1 km/h (3 Bft) 97,87 %
10.01.2020 15:54 7,3 C 6,1 C 6,1 C 95 % 1022,9 hPa 0,0 l/m 0 min 0 min 18 W/m 16,1 km/h (3 Bft) 97,87 %
10.01.2020 15:56 7,3 C 6,1 C 6,1 C 95 % 1022,9 hPa 0,0 l/m 0 min 0 min 18 W/m 12,9 km/h (3 Bft) 54,35 %
10.01.2020 15:58 7,3 C 6,1 C 6,1 C 95 % 1023,0 hPa 0,0 l/m 0 min 0 min 18 W/m 12,9 km/h (3 Bft) 97,87 %
10.01.2020 16:00 7,3 C 6,1 C 6,1 C 96 % 1023,1 hPa 0,0 l/m 0 min 0 min 18 W/m 22,5 km/h (4 Bft) 97,87 %
10.01.2020 16:02 7,3 C 6,1 C 6,1 C 96 % 1023,2 hPa 0,0 l/m 0 min 0 min 18 W/m 19,3 km/h (3 Bft) 97,87 %
10.01.2020 16:04 7,3 C 6,1 C 6,1 C 96 % 1023,2 hPa 0,0 l/m 0 min 0 min 16 W/m 19,3 km/h (3 Bft) 95,74 %
10.01.2020 16:06 7,3 C 6,1 C 6,1 C 95 % 1023,3 hPa 0,0 l/m 0 min 0 min 14 W/m 16,1 km/h (3 Bft) 91,30 %
10.01.2020 16:08 7,3 C 6,1 C 6,1 C 95 % 1023,3 hPa 0,0 l/m 0 min 0 min 16 W/m 22,5 km/h (4 Bft) 93,62 %
10.01.2020 16:10 7,2 C 6,1 C 6,1 C 95 % 1023,4 hPa 0,0 l/m 0 min 0 min 18 W/m 29,0 km/h (5 Bft) 93,62 %
10.01.2020 16:12 7,2 C 6,1 C 6,1 C 95 % 1023,5 hPa 0,0 l/m 0 min 0 min 18 W/m 22,5 km/h (4 Bft) 95,74 %
10.01.2020 16:14 7,2 C 6,1 C 6,1 C 95 % 1023,5 hPa 0,0 l/m 0 min 0 min 18 W/m 25,7 km/h (4 Bft) 95,74 %
10.01.2020 16:16 7,2 C 6,1 C 6,1 C 95 % 1023,6 hPa 0,0 l/m 0 min 0 min 15 W/m 16,1 km/h (3 Bft) 97,87 %
10.01.2020 16:18 7,2 C 6,1 C 6,1 C 95 % 1023,6 hPa 0,0 l/m 0 min 0 min 13 W/m 16,1 km/h (3 Bft) 95,65 %
10.01.2020 16:20 7,2 C 6,1 C 6,1 C 95 % 1023,7 hPa 0,0 l/m 0 min 0 min 11 W/m 16,1 km/h (3 Bft) 97,87 %
10.01.2020 16:22 7,2 C 6,1 C 6,1 C 95 % 1023,7 hPa 0,0 l/m 0 min 0 min 10 W/m 16,1 km/h (3 Bft) 97,87 %
10.01.2020 16:24 7,1 C 6,1 C 6,1 C 95 % 1023,7 hPa 0,0 l/m 0 min 0 min 11 W/m 19,3 km/h (3 Bft) 93,62 %
10.01.2020 16:26 7,1 C 6,1 C 6,1 C 95 % 1023,8 hPa 0,0 l/m 0 min 0 min 8 W/m 25,7 km/h (4 Bft) 91,49 %
10.01.2020 16:28 7,1 C 6,1 C 6,1 C 95 % 1023,8 hPa 0,0 l/m 0 min 0 min 7 W/m 25,7 km/h (4 Bft) 95,74 %
10.01.2020 16:30 7,1 C 6,1 C 6,1 C 95 % 1023,9 hPa 0,0 l/m 0 min 0 min 7 W/m 12,9 km/h (3 Bft) 95,65 %
10.01.2020 16:32 7,1 C 6,1 C 6,1 C 95 % 1024,0 hPa 0,0 l/m 0 min 0 min 4 W/m 12,9 km/h (3 Bft) 95,74 %
10.01.2020 16:34 7,1 C 6,1 C 6,1 C 95 % 1024,0 hPa 0,0 l/m 0 min 0 min 0 W/m 12,9 km/h (3 Bft) 95,74 %
10.01.2020 16:36 7,1 C 6,1 C 6,1 C 95 % 1024,0 hPa 0,0 l/m 0 min 0 min 0 W/m 25,7 km/h (4 Bft) 95,74 %
10.01.2020 16:38 7,1 C 6,1 C 6,1 C 95 % 1024,1 hPa 0,0 l/m 0 min 0 min 1 W/m 19,3 km/h (3 Bft) 95,74 %
10.01.2020 16:40 7,1 C 6,1 C 6,1 C 95 % 1024,1 hPa 0,0 l/m 0 min 0 min 5 W/m 16,1 km/h (3 Bft) 95,74 %
10.01.2020 16:42 7,1 C 6,1 C 6,1 C 95 % 1024,2 hPa 0,0 l/m 0 min 0 min 3 W/m 25,7 km/h (4 Bft) 95,65 %
10.01.2020 16:44 7,0 C 6,1 C 6,1 C 95 % 1024,2 hPa 0,0 l/m 0 min 0 min 0 W/m 32,2 km/h (5 Bft) 95,74 %
10.01.2020 16:46 7,0 C 6,1 C 6,1 C 95 % 1024,3 hPa 0,0 l/m 0 min 0 min 0 W/m 22,5 km/h (4 Bft) 95,74 %
10.01.2020 16:48 7,0 C 6,1 C 6,1 C 95 % 1024,4 hPa 0,0 l/m 0 min 0 min 0 W/m 22,5 km/h (4 Bft) 93,62 %
10.01.2020 16:50 6,9 C 6,1 C 6,1 C 95 % 1024,4 hPa 0,0 l/m 0 min 0 min 0 W/m 9,7 km/h (2 Bft) 95,74 %
10.01.2020 16:52 6,9 C 6,1 C 5,6 C 95 % 1024,4 hPa 0,0 l/m 0 min 0 min 0 W/m 12,9 km/h (3 Bft) 95,65 %
10.01.2020 16:54 6,9 C 6,1 C 5,6 C 95 % 1024,5 hPa 0,0 l/m 0 min 0 min 0 W/m 32,2 km/h (5 Bft) 95,74 %
10.01.2020 16:56 6,9 C 6,1 C 5,6 C 95 % 1024,6 hPa 0,0 l/m 0 min 0 min 0 W/m 35,4 km/h (5 Bft) 93,62 %
10.01.2020 16:58 6,9 C 6,1 C 5,6 C 95 % 1024,6 hPa 0,0 l/m 0 min 0 min 0 W/m 25,7 km/h (4 Bft) 95,74 %
10.01.2020 17:00 6,9 C 6,1 C 5,6 C 95 % 1024,6 hPa 0,0 l/m 0 min 0 min 0 W/m 29,0 km/h (5 Bft) 95,74 %
10.01.2020 17:02 6,8 C 6,1 C 5,6 C 95 % 1024,7 hPa 0,0 l/m 0 min 0 min 0 W/m 25,7 km/h (4 Bft) 97,87 %
10.01.2020 17:04 6,8 C 6,1 C 5,6 C 95 % 1024,8 hPa 0,0 l/m 0 min 0 min 0 W/m 19,3 km/h (3 Bft) 97,83 %
10.01.2020 17:06 6,8 C 6,1 C 5,6 C 94 % 1024,8 hPa 0,0 l/m 0 min 0 min 0 W/m 22,5 km/h (4 Bft) 95,74 %
10.01.2020 17:08 6,8 C 6,1 C 5,6 C 94 % 1024,9 hPa 0,0 l/m 0 min 0 min 0 W/m 19,3 km/h (3 Bft) 93,62 %
10.01.2020 17:10 6,8 C 6,1 C 5,6 C 94 % 1024,9 hPa 0,0 l/m 0 min 0 min 0 W/m 19,3 km/h (3 Bft) 97,87 %
10.01.2020 17:12 6,8 C 6,1 C 5,6 C 94 % 1025,0 hPa 0,0 l/m 0 min 0 min 0 W/m 16,1 km/h (3 Bft) 97,87 %
10.01.2020 17:14 6,8 C 6,1 C 5,6 C 94 % 1025,0 hPa 0,0 l/m 0 min 0 min 0 W/m 22,5 km/h (4 Bft) 95,74 %
10.01.2020 17:16 6,8 C 6,1 C 5,6 C 94 % 1025,1 hPa 0,0 l/m 0 min 0 min 0 W/m 19,3 km/h (3 Bft) 100,00 %
10.01.2020 17:18 6,8 C 6,1 C 5,6 C 94 % 1025,1 hPa 0,0 l/m 0 min 0 min 0 W/m 16,1 km/h (3 Bft) 100,00 %
10.01.2020 17:20 6,8 C 6,1 C 5,6 C 94 % 1025,1 hPa 0,0 l/m 0 min 0 min 0 W/m 12,9 km/h (3 Bft) 100,00 %
10.01.2020 17:22 6,8 C 6,1 C 5,6 C 94 % 1025,1 hPa 0,0 l/m 0 min 0 min 0 W/m 12,9 km/h (3 Bft) 100,00 %
10.01.2020 17:24 6,8 C 6,1 C 5,6 C 94 % 1025,1 hPa 0,0 l/m 0 min 0 min 0 W/m 22,5 km/h (4 Bft) 100,00 %
10.01.2020 17:26 6,8 C 6,1 C 5,6 C 94 % 1025,2 hPa 0,0 l/m 0 min 0 min 0 W/m 19,3 km/h (3 Bft) 100,00 %
10.01.2020 17:28 6,8 C 6,1 C 5,6 C 94 % 1025,2 hPa 0,0 l/m 0 min 0 min 0 W/m 16,1 km/h (3 Bft) 100,00 %
10.01.2020 17:30 6,8 C 6,1 C 5,6 C 94 % 1025,2 hPa 0,0 l/m 0 min 0 min 0 W/m 22,5 km/h (4 Bft) 100,00 %
10.01.2020 17:32 6,7 C 6,1 C 5,6 C 94 % 1025,3 hPa 0,0 l/m 0 min 0 min 0 W/m 25,7 km/h (4 Bft) 100,00 %
10.01.2020 17:34 6,7 C 6,1 C 5,6 C 94 % 1025,3 hPa 0,0 l/m 0 min 0 min 0 W/m 22,5 km/h (4 Bft) 100,00 %
10.01.2020 17:36 6,7 C 6,1 C 5,6 C 94 % 1025,3 hPa 0,0 l/m 0 min 0 min 0 W/m 19,3 km/h (3 Bft) 100,00 %
10.01.2020 17:38 6,7 C 6,1 C 5,6 C 94 % 1025,4 hPa 0,0 l/m 0 min 0 min 0 W/m 16,1 km/h (3 Bft) 100,00 %
10.01.2020 17:40 6,7 C 6,1 C 5,6 C 94 % 1025,4 hPa 0,0 l/m 0 min 0 min 0 W/m 16,1 km/h (3 Bft) 100,00 %
10.01.2020 17:42 6,7 C 6,1 C 5,6 C 94 % 1025,5 hPa 0,0 l/m 0 min 0 min 0 W/m 19,3 km/h (3 Bft) 100,00 %
10.01.2020 17:44 6,7 C 6,1 C 5,6 C 93 % 1025,5 hPa 0,0 l/m 0 min 0 min 0 W/m 16,1 km/h (3 Bft) 100,00 %
10.01.2020 17:46 6,7 C 6,1 C 5,6 C 93 % 1025,6 hPa 0,0 l/m 0 min 0 min 0 W/m 12,9 km/h (3 Bft) 97,87 %
10.01.2020 17:48 6,7 C 6,1 C 5,6 C 93 % 1025,7 hPa 0,0 l/m 0 min 0 min 0 W/m 6,4 km/h (2 Bft) 100,00 %
10.01.2020 17:50 6,7 C 6,1 C 5,6 C 93 % 1025,7 hPa 0,0 l/m 0 min 0 min 0 W/m 12,9 km/h (3 Bft) 100,00 %
10.01.2020 17:52 6,7 C 6,1 C 5,6 C 93 % 1025,9 hPa 0,0 l/m 0 min 0 min 0 W/m 19,3 km/h (3 Bft) 100,00 %
10.01.2020 17:54 6,7 C 6,1 C 5,6 C 93 % 1025,9 hPa 0,0 l/m 0 min 0 min 0 W/m 9,7 km/h (2 Bft) 100,00 %
10.01.2020 17:56 6,7 C 6,1 C 5,6 C 93 % 1025,8 hPa 0,0 l/m 0 min 0 min 0 W/m 12,9 km/h (3 Bft) 100,00 %
10.01.2020 17:58 6,7 C 6,1 C 5,6 C 93 % 1025,9 hPa 0,0 l/m 0 min 0 min 0 W/m 9,7 km/h (2 Bft) 100,00 %
10.01.2020 18:00 6,7 C 5,6 C 5,6 C 93 % 1025,9 hPa 0,0 l/m 0 min 0 min 0 W/m 9,7 km/h (2 Bft) 100,00 %
10.01.2020 18:02 6,6 C 5,6 C 5,6 C 93 % 1025,9 hPa 0,0 l/m 0 min 0 min 0 W/m 6,4 km/h (2 Bft) 97,83 %
10.01.2020 18:04 6,6 C 5,6 C 5,6 C 93 % 1025,9 hPa 0,0 l/m 0 min 0 min 0 W/m 16,1 km/h (3 Bft) 100,00 %
10.01.2020 18:06 6,6 C 5,6 C 5,6 C 93 % 1026,0 hPa 0,0 l/m 0 min 0 min 0 W/m 12,9 km/h (3 Bft) 100,00 %
10.01.2020 18:08 6,6 C 5,6 C 5,6 C 93 % 1026,1 hPa 0,0 l/m 0 min 0 min 0 W/m 9,7 km/h (2 Bft) 97,87 %
10.01.2020 18:10 6,6 C 5,6 C 5,6 C 93 % 1026,1 hPa 0,0 l/m 0 min 0 min 0 W/m 12,9 km/h (3 Bft) 95,74 %
10.01.2020 18:12 6,6 C 5,6 C 5,6 C 93 % 1026,1 hPa 0,0 l/m 0 min 0 min 0 W/m 6,4 km/h (2 Bft) 97,87 %
10.01.2020 18:14 6,6 C 5,6 C 5,6 C 93 % 1026,1 hPa 0,0 l/m 0 min 0 min 0 W/m 0,0 km/h (0 Bft) 95,65 %
10.01.2020 18:16 6,6 C 5,6 C 5,6 C 93 % 1026,2 hPa 0,0 l/m 0 min 0 min 0 W/m 12,9 km/h (3 Bft) 97,87 %
10.01.2020 18:18 6,6 C 5,6 C 5,6 C 93 % 1026,3 hPa 0,0 l/m 0 min 0 min 0 W/m 12,9 km/h (3 Bft) 97,87 %
10.01.2020 18:20 6,6 C 5,6 C 5,6 C 93 % 1026,4 hPa 0,0 l/m 0 min 0 min 0 W/m 16,1 km/h (3 Bft) 97,87 %
10.01.2020 18:22 6,5 C 5,6 C 5,6 C 93 % 1026,5 hPa 0,0 l/m 0 min 0 min 0 W/m 19,3 km/h (3 Bft) 97,87 %
10.01.2020 18:24 6,5 C 5,6 C 5,6 C 93 % 1026,5 hPa 0,0 l/m 0 min 0 min 0 W/m 16,1 km/h (3 Bft) 97,87 %
10.01.2020 18:26 6,5 C 5,6 C 5,6 C 93 % 1026,4 hPa 0,0 l/m 0 min 0 min 0 W/m 16,1 km/h (3 Bft) 95,65 %
10.01.2020 18:28 6,5 C 5,6 C 5,0 C 93 % 1026,4 hPa 0,0 l/m 0 min 0 min 0 W/m 12,9 km/h (3 Bft) 95,74 %
10.01.2020 18:30 6,5 C 5,6 C 5,6 C 93 % 1026,5 hPa 0,0 l/m 0 min 0 min 0 W/m 12,9 km/h (3 Bft) 97,87 %
10.01.2020 18:32 6,5 C 5,6 C 5,0 C 93 % 1026,5 hPa 0,0 l/m 0 min 0 min 0 W/m 12,9 km/h (3 Bft) 93,62 %
10.01.2020 18:34 6,5 C 5,6 C 5,0 C 93 % 1026,5 hPa 0,0 l/m 0 min 0 min 0 W/m 9,7 km/h (2 Bft) 97,87 %
10.01.2020 18:36 6,5 C 5,6 C 5,0 C 93 % 1026,6 hPa 0,0 l/m 0 min 0 min 0 W/m 12,9 km/h (3 Bft) 97,87 %
10.01.2020 18:38 6,4 C 5,6 C 5,0 C 93 % 1026,7 hPa 0,0 l/m 0 min 0 min 0 W/m 12,9 km/h (3 Bft) 97,87 %
10.01.2020 18:40 6,4 C 5,6 C 5,0 C 93 % 1026,8 hPa 0,0 l/m 0 min 0 min 0 W/m 9,7 km/h (2 Bft) 97,83 %
10.01.2020 18:42 6,4 C 5,6 C 5,0 C 93 % 1026,8 hPa 0,0 l/m 0 min 0 min 0 W/m 16,1 km/h (3 Bft) 97,87 %
10.01.2020 18:44 6,3 C 5,6 C 5,0 C 93 % 1026,9 hPa 0,0 l/m 0 min 0 min 0 W/m 9,7 km/h (2 Bft) 97,87 %
10.01.2020 18:46 6,3 C 5,0 C 5,0 C 93 % 1027,1 hPa 0,0 l/m 0 min 0 min 0 W/m 6,4 km/h (2 Bft) 97,87 %
10.01.2020 18:48 6,3 C 5,0 C 4,4 C 93 % 1027,1 hPa 0,0 l/m 0 min 0 min 0 W/m 6,4 km/h (2 Bft) 95,74 %
10.01.2020 18:50 6,3 C 5,0 C 4,4 C 93 % 1027,1 hPa 0,0 l/m 0 min 0 min 0 W/m 6,4 km/h (2 Bft) 95,65 %
10.01.2020 18:52 6,2 C 5,0 C 4,4 C 93 % 1027,1 hPa 0,0 l/m 0 min 0 min 0 W/m 3,2 km/h (1 Bft) 97,87 %
10.01.2020 18:54 6,2 C 4,4 C 4,4 C 93 % 1027,1 hPa 0,0 l/m 0 min 0 min 0 W/m 0,0 km/h (0 Bft) 97,87 %
10.01.2020 18:56 6,2 C 4,4 C 4,4 C 93 % 1027,2 hPa 0,0 l/m 0 min 0 min 0 W/m 6,4 km/h (2 Bft) 97,87 %
10.01.2020 18:58 6,1 C 4,4 C 4,4 C 93 % 1027,3 hPa 0,0 l/m 0 min 0 min 0 W/m 9,7 km/h (2 Bft) 100,00 %
10.01.2020 19:00 6,1 C 4,4 C 3,9 C 93 % 1027,3 hPa 0,0 l/m 0 min 0 min 0 W/m 6,4 km/h (2 Bft) 97,83 %
10.01.2020 19:02 6,1 C 4,4 C 4,4 C 93 % 1027,3 hPa 0,0 l/m 0 min 0 min 0 W/m 6,4 km/h (2 Bft) 100,00 %
10.01.2020 19:04 6,1 C 4,4 C 4,4 C 92 % 1027,4 hPa 0,0 l/m 0 min 0 min 0 W/m 9,7 km/h (2 Bft) 97,87 %
10.01.2020 19:06 6,0 C 4,4 C 4,4 C 92 % 1027,4 hPa 0,0 l/m 0 min 0 min 0 W/m 3,2 km/h (1 Bft) 95,74 %
10.01.2020 19:08 5,9 C 4,4 C 4,4 C 92 % 1027,5 hPa 0,0 l/m 0 min 0 min 0 W/m 12,9 km/h (3 Bft) 100,00 %
10.01.2020 19:10 5,9 C 4,4 C 3,9 C 93 % 1027,5 hPa 0,0 l/m 0 min 0 min 0 W/m 9,7 km/h (2 Bft) 97,87 %
10.01.2020 19:12 5,9 C 4,4 C 3,9 C 93 % 1027,4 hPa 0,0 l/m 0 min 0 min 0 W/m 3,2 km/h (1 Bft) 97,83 %
10.01.2020 19:14 5,8 C 4,4 C 3,9 C 93 % 1027,6 hPa 0,0 l/m 0 min 0 min 0 W/m 6,4 km/h (2 Bft) 97,87 %
10.01.2020 19:16 5,8 C 4,4 C 3,9 C 93 % 1027,7 hPa 0,0 l/m 0 min 0 min 0 W/m 0,0 km/h (0 Bft) 95,74 %
10.01.2020 19:18 5,8 C 4,4 C 3,9 C 93 % 1027,7 hPa 0,0 l/m 0 min 0 min 0 W/m 0,0 km/h (0 Bft) 97,87 %
10.01.2020 19:20 5,7 C 3,9 C 3,9 C 93 % 1027,7 hPa 0,0 l/m 0 min 0 min 0 W/m 0,0 km/h (0 Bft) 100,00 %
10.01.2020 19:22 5,7 C 3,9 C 3,3 C 93 % 1027,7 hPa 0,0 l/m 0 min 0 min 0 W/m 0,0 km/h (0 Bft) 95,74 %
10.01.2020 19:24 5,7 C 3,9 C 3,3 C 93 % 1027,7 hPa 0,0 l/m 0 min 0 min 0 W/m 0,0 km/h (0 Bft) 95,74 %
10.01.2020 19:26 5,6 C 3,9 C 3,3 C 93 % 1027,8 hPa 0,0 l/m 0 min 0 min 0 W/m 0,0 km/h (0 Bft) 97,83 %
10.01.2020 19:28 5,6 C 3,9 C 3,3 C 93 % 1027,8 hPa 0,0 l/m 0 min 0 min 0 W/m 0,0 km/h (0 Bft) 97,87 %
10.01.2020 19:30 5,6 C 3,9 C 3,3 C 93 % 1027,8 hPa 0,0 l/m 0 min 0 min 0 W/m 3,2 km/h (1 Bft) 97,92 %
10.01.2020 19:32 5,5 C 3,9 C 3,3 C 93 % 1027,8 hPa 0,0 l/m 0 min 0 min 0 W/m 6,4 km/h (2 Bft) 95,74 %
10.01.2020 19:34 5,4 C 3,9 C 3,3 C 93 % 1027,8 hPa 0,0 l/m 0 min 0 min 0 W/m 12,9 km/h (3 Bft) 95,74 %
10.01.2020 19:36 5,4 C 3,9 C 3,3 C 93 % 1027,9 hPa 0,0 l/m 0 min 0 min 0 W/m 0,0 km/h (0 Bft) 95,65 %
10.01.2020 19:38 5,3 C 3,3 C 3,3 C 93 % 1027,9 hPa 0,0 l/m 0 min 0 min 0 W/m 0,0 km/h (0 Bft) 95,74 %
10.01.2020 19:40 5,3 C 3,3 C 3,3 C 93 % 1027,9 hPa 0,0 l/m 0 min 0 min 0 W/m 3,2 km/h (1 Bft) 95,74 %
10.01.2020 19:42 5,3 C 3,3 C 3,3 C 93 % 1028,0 hPa 0,0 l/m 0 min 0 min 0 W/m 3,2 km/h (1 Bft) 91,49 %
10.01.2020 19:44 5,2 C 3,3 C 3,3 C 93 % 1028,0 hPa 0,0 l/m 0 min 0 min 0 W/m 6,4 km/h (2 Bft) 93,62 %
10.01.2020 19:46 5,2 C 3,3 C 3,3 C 93 % 1028,0 hPa 0,0 l/m 0 min 0 min 0 W/m 3,2 km/h (1 Bft) 95,74 %
10.01.2020 19:48 5,1 C 3,3 C 2,8 C 93 % 1028,1 hPa 0,0 l/m 0 min 0 min 0 W/m 0,0 km/h (0 Bft) 95,65 %
10.01.2020 19:50 5,1 C 3,3 C 2,8 C 93 % 1028,2 hPa 0,0 l/m 0 min 0 min 0 W/m 3,2 km/h (1 Bft) 95,74 %
10.01.2020 19:52 5,1 C 3,3 C 2,8 C 93 % 1028,2 hPa 0,0 l/m 0 min 0 min 0 W/m 0,0 km/h (0 Bft) 95,74 %
10.01.2020 19:54 5,0 C 3,3 C 2,8 C 93 % 1028,2 hPa 0,0 l/m 0 min 0 min 0 W/m 3,2 km/h (1 Bft) 95,74 %
10.01.2020 19:56 5,0 C 3,3 C 2,8 C 93 % 1028,1 hPa 0,0 l/m 0 min 0 min 0 W/m 0,0 km/h (0 Bft) 95,74 %
10.01.2020 19:58 4,9 C 3,3 C 2,8 C 93 % 1028,2 hPa 0,0 l/m 0 min 0 min 0 W/m 0,0 km/h (0 Bft) 97,83 %
10.01.2020 20:00 4,9 C 3,3 C 2,8 C 93 % 1028,2 hPa 0,0 l/m 0 min 0 min 0 W/m 0,0 km/h (0 Bft) 95,74 %
10.01.2020 20:02 4,8 C 3,3 C 2,8 C 93 % 1028,2 hPa 0,0 l/m 0 min 0 min 0 W/m 3,2 km/h (1 Bft) 97,87 %
10.01.2020 20:04 4,8 C 3,3 C 2,8 C 93 % 1028,3 hPa 0,0 l/m 0 min 0 min 0 W/m 0,0 km/h (0 Bft) 97,92 %
10.01.2020 20:06 4,8 C 3,3 C 2,8 C 93 % 1028,4 hPa 0,0 l/m 0 min 0 min 0 W/m 0,0 km/h (0 Bft) 95,74 %
10.01.2020 20:08 4,7 C 3,3 C 2,8 C 93 % 1028,4 hPa 0,0 l/m 0 min 0 min 0 W/m 0,0 km/h (0 Bft) 97,87 %
10.01.2020 20:10 4,7 C 3,3 C 2,8 C 93 % 1028,4 hPa 0,0 l/m 0 min 0 min 0 W/m 3,2 km/h (1 Bft) 95,65 %
10.01.2020 20:12 4,6 C 3,3 C 2,8 C 94 % 1028,4 hPa 0,0 l/m 0 min 0 min 0 W/m 3,2 km/h (1 Bft) 95,74 %
10.01.2020 20:14 4,6 C 3,3 C 2,8 C 94 % 1028,4 hPa 0,0 l/m 0 min 0 min 0 W/m 6,4 km/h (2 Bft) 97,87 %
10.01.2020 20:16 4,6 C 3,3 C 2,8 C 94 % 1028,5 hPa 0,0 l/m 0 min 0 min 0 W/m 3,2 km/h (1 Bft) 95,74 %
10.01.2020 20:18 4,5 C 2,8 C 2,8 C 94 % 1028,5 hPa 0,0 l/m 0 min 0 min 0 W/m 6,4 km/h (2 Bft) 95,74 %
10.01.2020 20:20 4,5 C 3,3 C 2,8 C 94 % 1028,5 hPa 0,0 l/m 0 min 0 min 0 W/m 3,2 km/h (1 Bft) 97,87 %
10.01.2020 20:22 4,4 C 3,3 C 2,8 C 94 % 1028,5 hPa 0,0 l/m 0 min 0 min 0 W/m 3,2 km/h (1 Bft) 97,83 %
10.01.2020 20:24 4,4 C 2,8 C 2,8 C 94 % 1028,5 hPa 0,0 l/m 0 min 0 min 0 W/m 3,2 km/h (1 Bft) 97,87 %
10.01.2020 20:26 4,4 C 2,8 C 2,8 C 94 % 1028,6 hPa 0,0 l/m 0 min 0 min 0 W/m 0,0 km/h (0 Bft) 95,74 %
10.01.2020 20:28 4,3 C 2,8 C 2,8 C 94 % 1028,7 hPa 0,0 l/m 0 min 0 min 0 W/m 0,0 km/h (0 Bft) 97,87 %
10.01.2020 20:30 4,3 C 2,8 C 2,8 C 94 % 1028,7 hPa 0,0 l/m 0 min 0 min 0 W/m 3,2 km/h (1 Bft) 97,87 %
10.01.2020 20:32 4,3 C 2,8 C 2,8 C 94 % 1028,7 hPa 0,0 l/m 0 min 0 min 0 W/m 0,0 km/h (0 Bft) 97,56 %
10.01.2020 20:34 4,3 C 2,8 C 2,8 C 94 % 1028,8 hPa 0,0 l/m 0 min 0 min 0 W/m 3,2 km/h (1 Bft) 97,87 %
10.01.2020 20:36 4,2 C 2,8 C 2,8 C 94 % 1028,8 hPa 0,0 l/m 0 min 0 min 0 W/m 3,2 km/h (1 Bft) 98,18 %
10.01.2020 20:38 4,2 C 2,8 C 2,8 C 94 % 1028,8 hPa 0,0 l/m 0 min 0 min 0 W/m 3,2 km/h (1 Bft) 93,62 %
10.01.2020 20:40 4,2 C 2,8 C 2,2 C 94 % 1028,9 hPa 0,0 l/m 0 min 0 min 0 W/m 9,7 km/h (2 Bft) 97,87 %
10.01.2020 20:42 4,2 C 2,8 C 2,2 C 94 % 1028,9 hPa 0,0 l/m 0 min 0 min 0 W/m 0,0 km/h (0 Bft) 97,87 %
10.01.2020 20:44 4,1 C 2,8 C 2,2 C 94 % 1028,9 hPa 0,0 l/m 0 min 0 min 0 W/m 0,0 km/h (0 Bft) 100,00 %
10.01.2020 20:46 4,1 C 2,8 C 2,2 C 94 % 1028,9 hPa 0,0 l/m 0 min 0 min 0 W/m 0,0 km/h (0 Bft) 100,00 %
10.01.2020 20:48 4,1 C 2,8 C 2,2 C 94 % 1029,0 hPa 0,0 l/m 0 min 0 min 0 W/m 0,0 km/h (0 Bft) 95,74 %
10.01.2020 20:50 4,1 C 2,8 C 2,2 C 94 % 1029,1 hPa 0,0 l/m 0 min 0 min 0 W/m 0,0 km/h (0 Bft) 100,00 %
10.01.2020 20:52 4,0 C 2,8 C 2,2 C 94 % 1029,1 hPa 0,0 l/m 0 min 0 min 0 W/m 0,0 km/h (0 Bft) 93,62 %
10.01.2020 20:54 4,0 C 2,8 C 2,2 C 94 % 1029,1 hPa 0,0 l/m 0 min 0 min 0 W/m 0,0 km/h (0 Bft) 100,00 %
10.01.2020 20:56 3,9 C 2,8 C 1,7 C 94 % 1029,1 hPa 0,0 l/m 0 min 0 min 0 W/m 0,0 km/h (0 Bft) 97,87 %
10.01.2020 20:58 3,9 C 2,2 C 1,7 C 94 % 1029,2 hPa 0,0 l/m 0 min 0 min 0 W/m 0,0 km/h (0 Bft) 95,74 %
10.01.2020 21:00 3,9 C 2,2 C 1,7 C 94 % 1029,2 hPa 0,0 l/m 0 min 0 min 0 W/m 0,0 km/h (0 Bft) 97,87 %
10.01.2020 21:02 3,9 C 2,2 C 1,7 C 94 % 1029,3 hPa 0,0 l/m 0 min 0 min 0 W/m 0,0 km/h (0 Bft) 97,87 %
10.01.2020 21:04 3,8 C 2,8 C 1,7 C 94 % 1029,3 hPa 0,0 l/m 0 min 0 min 0 W/m 0,0 km/h (0 Bft) 97,87 %
10.01.2020 21:06 3,8 C 2,2 C 1,7 C 94 % 1029,3 hPa 0,0 l/m 0 min 0 min 0 W/m 0,0 km/h (0 Bft) 95,65 %
10.01.2020 21:08 3,8 C 2,2 C 1,7 C 94 % 1029,4 hPa 0,0 l/m 0 min 0 min 0 W/m 0,0 km/h (0 Bft) 95,83 %
10.01.2020 21:10 3,8 C 2,2 C 1,7 C 94 % 1029,4 hPa 0,0 l/m 0 min 0 min 0 W/m 0,0 km/h (0 Bft) 97,83 %
10.01.2020 21:12 3,7 C 2,2 C 1,7 C 94 % 1029,5 hPa 0,0 l/m 0 min 0 min 0 W/m 0,0 km/h (0 Bft) 95,74 %
10.01.2020 21:14 3,7 C 2,2 C 1,7 C 94 % 1029,5 hPa 0,0 l/m 0 min 0 min 0 W/m 0,0 km/h (0 Bft) 97,87 %
10.01.2020 21:16 3,7 C 2,2 C 1,7 C 94 % 1029,5 hPa 0,0 l/m 0 min 0 min 0 W/m 0,0 km/h (0 Bft) 97,87 %
10.01.2020 21:18 3,7 C 2,2 C 1,7 C 94 % 1029,5 hPa 0,0 l/m 0 min 0 min 0 W/m 0,0 km/h (0 Bft) 97,83 %
10.01.2020 21:20 3,6 C 2,2 C 1,7 C 94 % 1029,6 hPa 0,0 l/m 0 min 0 min 0 W/m 0,0 km/h (0 Bft) 94,74 %
10.01.2020 21:22 3,6 C 2,2 C 1,7 C 94 % 1029,5 hPa 0,0 l/m 0 min 0 min 0 W/m 0,0 km/h (0 Bft) 95,74 %
10.01.2020 21:24 3,6 C 2,2 C 1,7 C 94 % 1029,5 hPa 0,0 l/m 0 min 0 min 0 W/m 0,0 km/h (0 Bft) 97,87 %
10.01.2020 21:26 3,6 C 2,2 C 1,7 C 94 % 1029,6 hPa 0,0 l/m 0 min 0 min 0 W/m 0,0 km/h (0 Bft) 93,62 %
10.01.2020 21:28 3,5 C 2,2 C 1,7 C 94 % 1029,7 hPa 0,0 l/m 0 min 0 min 0 W/m 0,0 km/h (0 Bft) 95,74 %
10.01.2020 21:30 3,5 C 2,2 C 1,7 C 95 % 1029,7 hPa 0,0 l/m 0 min 0 min 0 W/m 0,0 km/h (0 Bft) 95,74 %
10.01.2020 21:32 3,4 C 2,2 C 1,7 C 95 % 1029,7 hPa 0,0 l/m 0 min 0 min 0 W/m 0,0 km/h (0 Bft) 93,48 %
10.01.2020 21:34 3,4 C 2,2 C 1,7 C 95 % 1029,7 hPa 0,0 l/m 0 min 0 min 0 W/m 3,2 km/h (1 Bft) 93,62 %
10.01.2020 21:36 3,4 C 2,2 C 1,7 C 95 % 1029,8 hPa 0,0 l/m 0 min 0 min 0 W/m 0,0 km/h (0 Bft) 95,74 %
10.01.2020 21:38 3,4 C 2,2 C 1,7 C 95 % 1029,8 hPa 0,0 l/m 0 min 0 min 0 W/m 0,0 km/h (0 Bft) 95,74 %
10.01.2020 21:40 3,4 C 2,2 C 1,7 C 95 % 1029,8 hPa 0,0 l/m 0 min 0 min 0 W/m 3,2 km/h (1 Bft) 96,00 %
10.01.2020 21:42 3,4 C 2,2 C 1,7 C 95 % 1029,9 hPa 0,0 l/m 0 min 0 min 0 W/m 3,2 km/h (1 Bft) 93,48 %
10.01.2020 21:44 3,3 C 2,8 C 2,2 C 95 % 1030,0 hPa 0,0 l/m 0 min 0 min 0 W/m 3,2 km/h (1 Bft) 61,70 %
10.01.2020 21:46 3,3 C 2,8 C 2,2 C 95 % 1030,0 hPa 0,0 l/m 0 min 0 min 0 W/m 6,4 km/h (2 Bft) 89,36 %
10.01.2020 21:48 3,3 C 2,8 C 2,2 C 95 % 1030,0 hPa 0,0 l/m 0 min 0 min 0 W/m 0,0 km/h (0 Bft) 97,87 %
10.01.2020 21:50 3,3 C 2,8 C 2,2 C 95 % 1029,9 hPa 0,0 l/m 0 min 0 min 0 W/m 0,0 km/h (0 Bft) 95,74 %
10.01.2020 21:52 3,3 C 2,8 C 2,2 C 95 % 1029,9 hPa 0,0 l/m 0 min 0 min 0 W/m 0,0 km/h (0 Bft) 95,74 %
10.01.2020 21:54 3,3 C 2,8 C 2,2 C 95 % 1029,9 hPa 0,0 l/m 0 min 0 min 0 W/m 3,2 km/h (1 Bft) 97,83 %
10.01.2020 21:56 3,4 C 2,8 C 2,2 C 95 % 1029,9 hPa 0,0 l/m 0 min 0 min 0 W/m 3,2 km/h (1 Bft) 93,62 %
10.01.2020 21:58 3,4 C 2,8 C 2,2 C 95 % 1029,9 hPa 0,0 l/m 0 min 0 min 0 W/m 0,0 km/h (0 Bft) 97,87 %
10.01.2020 22:00 3,4 C 2,2 C 2,2 C 95 % 1029,9 hPa 0,0 l/m 0 min 0 min 0 W/m 0,0 km/h (0 Bft) 100,00 %
10.01.2020 22:02 3,4 C 2,2 C 1,7 C 95 % 1029,9 hPa 0,0 l/m 0 min 0 min 0 W/m 0,0 km/h (0 Bft) 100,00 %
10.01.2020 22:04 3,4 C 2,2 C 1,7 C 95 % 1029,9 hPa 0,0 l/m 0 min 0 min 0 W/m 0,0 km/h (0 Bft) 97,87 %
10.01.2020 22:06 3,3 C 2,2 C 1,7 C 95 % 1029,9 hPa 0,0 l/m 0 min 0 min 0 W/m 0,0 km/h (0 Bft) 97,83 %
10.01.2020 22:08 3,4 C 2,8 C 1,7 C 95 % 1029,9 hPa 0,0 l/m 0 min 0 min 0 W/m 0,0 km/h (0 Bft) 100,00 %
10.01.2020 22:10 3,4 C 2,8 C 1,7 C 95 % 1030,0 hPa 0,0 l/m 0 min 0 min 0 W/m 0,0 km/h (0 Bft) 100,00 %
10.01.2020 22:12 3,4 C 2,2 C 1,7 C 96 % 1030,0 hPa 0,0 l/m 0 min 0 min 0 W/m 0,0 km/h (0 Bft) 100,00 %
10.01.2020 22:14 3,4 C 2,8 C 1,7 C 96 % 1030,1 hPa 0,0 l/m 0 min 0 min 0 W/m 0,0 km/h (0 Bft) 100,00 %
10.01.2020 22:16 3,4 C 2,8 C 1,7 C 96 % 1030,1 hPa 0,0 l/m 0 min 0 min 0 W/m 0,0 km/h (0 Bft) 100,00 %
10.01.2020 22:18 3,3 C 2,2 C 1,7 C 96 % 1030,1 hPa 0,0 l/m 0 min 0 min 0 W/m 0,0 km/h (0 Bft) 100,00 %
10.01.2020 22:20 3,3 C 2,2 C 1,7 C 96 % 1030,1 hPa 0,0 l/m 0 min 0 min 0 W/m 0,0 km/h (0 Bft) 100,00 %
10.01.2020 22:22 3,3 C 2,2 C 1,7 C 96 % 1030,1 hPa 0,0 l/m 0 min 0 min 0 W/m 0,0 km/h (0 Bft) 100,00 %
10.01.2020 22:24 3,3 C 2,2 C 1,1 C 96 % 1030,2 hPa 0,0 l/m 0 min 0 min 0 W/m 0,0 km/h (0 Bft) 100,00 %
10.01.2020 22:26 3,3 C 2,2 C 1,1 C 95 % 1030,1 hPa 0,0 l/m 0 min 0 min 0 W/m 0,0 km/h (0 Bft) 100,00 %
10.01.2020 22:28 3,3 C 2,2 C 1,1 C 95 % 1030,2 hPa 0,0 l/m 0 min 0 min 0 W/m 0,0 km/h (0 Bft) 97,92 %
10.01.2020 22:30 3,3 C 1,7 C 1,1 C 95 % 1030,2 hPa 0,0 l/m 0 min 0 min 0 W/m 0,0 km/h (0 Bft) 97,83 %
10.01.2020 22:32 3,3 C 1,7 C 1,1 C 96 % 1030,2 hPa 0,0 l/m 0 min 0 min 0 W/m 0,0 km/h (0 Bft) 100,00 %
10.01.2020 22:34 3,3 C 1,7 C 1,1 C 96 % 1030,3 hPa 0,0 l/m 0 min 0 min 0 W/m 0,0 km/h (0 Bft) 100,00 %
10.01.2020 22:36 3,2 C 1,7 C 0,6 C 96 % 1030,4 hPa 0,0 l/m 0 min 0 min 0 W/m 0,0 km/h (0 Bft) 100,00 %
10.01.2020 22:38 3,2 C 1,7 C 0,6 C 96 % 1030,4 hPa 0,0 l/m 0 min 0 min 0 W/m 0,0 km/h (0 Bft) 100,00 %
10.01.2020 22:40 3,2 C 1,7 C 0,6 C 96 % 1030,4 hPa 0,0 l/m 0 min 0 min 0 W/m 0,0 km/h (0 Bft) 100,00 %
10.01.2020 22:42 3,2 C 1,7 C 0,6 C 96 % 1030,4 hPa 0,0 l/m 0 min 0 min 0 W/m 0,0 km/h (0 Bft) 100,00 %
10.01.2020 22:44 3,1 C 1,7 C 0,6 C 96 % 1030,4 hPa 0,0 l/m 0 min 0 min 0 W/m 0,0 km/h (0 Bft) 100,00 %
10.01.2020 22:46 3,1 C 1,7 C 0,6 C 96 % 1030,5 hPa 0,0 l/m 0 min 0 min 0 W/m 0,0 km/h (0 Bft) 100,00 %
10.01.2020 22:48 3,1 C 1,7 C 0,6 C 96 % 1030,5 hPa 0,0 l/m 0 min 0 min 0 W/m 0,0 km/h (0 Bft) 100,00 %
10.01.2020 22:50 3,1 C 1,7 C 0,6 C 96 % 1030,6 hPa 0,0 l/m 0 min 0 min 0 W/m 0,0 km/h (0 Bft) 100,00 %
10.01.2020 22:52 3,0 C 1,1 C 0,6 C 96 % 1030,6 hPa 0,0 l/m 0 min 0 min 0 W/m 0,0 km/h (0 Bft) 97,44 %
10.01.2020 22:54 3,0 C 1,1 C 0,6 C 96 % 1030,6 hPa 0,0 l/m 0 min 0 min 0 W/m 0,0 km/h (0 Bft) 100,00 %
10.01.2020 22:56 3,0 C 1,1 C 0,6 C 95 % 1030,6 hPa 0,0 l/m 0 min 0 min 0 W/m 0,0 km/h (0 Bft) 100,00 %
10.01.2020 22:58 2,9 C 1,1 C 0,6 C 95 % 1030,6 hPa 0,0 l/m 0 min 0 min 0 W/m 0,0 km/h (0 Bft) 100,00 %
10.01.2020 23:00 2,9 C 1,1 C 0,6 C 95 % 1030,6 hPa 0,0 l/m 0 min 0 min 0 W/m 0,0 km/h (0 Bft) 97,87 %
10.01.2020 23:02 2,9 C 1,1 C 0,6 C 95 % 1030,7 hPa 0,0 l/m 0 min 0 min 0 W/m 0,0 km/h (0 Bft) 100,00 %
10.01.2020 23:04 2,8 C 1,1 C 0,6 C 95 % 1030,6 hPa 0,0 l/m 0 min 0 min 0 W/m 0,0 km/h (0 Bft) 100,00 %
10.01.2020 23:06 2,8 C 1,1 C 0,6 C 95 % 1030,6 hPa 0,0 l/m 0 min 0 min 0 W/m 0,0 km/h (0 Bft) 95,83 %
10.01.2020 23:08 2,8 C 1,1 C 0,6 C 96 % 1030,6 hPa 0,0 l/m 0 min 0 min 0 W/m 0,0 km/h (0 Bft) 100,00 %
10.01.2020 23:10 2,8 C 1,1 C 0,6 C 96 % 1030,7 hPa 0,0 l/m 0 min 0 min 0 W/m 0,0 km/h (0 Bft) 97,87 %
10.01.2020 23:12 2,7 C 1,1 C 0,6 C 96 % 1030,8 hPa 0,0 l/m 0 min 0 min 0 W/m 0,0 km/h (0 Bft) 95,74 %
10.01.2020 23:14 2,7 C 1,1 C 0,6 C 96 % 1030,9 hPa 0,0 l/m 0 min 0 min 0 W/m 0,0 km/h (0 Bft) 100,00 %
10.01.2020 23:16 2,7 C 1,1 C 0,6 C 96 % 1030,9 hPa 0,0 l/m 0 min 0 min 0 W/m 0,0 km/h (0 Bft) 97,87 %
10.01.2020 23:18 2,7 C 1,1 C 0,6 C 96 % 1030,9 hPa 0,0 l/m 0 min 0 min 0 W/m 0,0 km/h (0 Bft) 100,00 %
10.01.2020 23:20 2,6 C 1,1 C 0,6 C 96 % 1030,9 hPa 0,0 l/m 0 min 0 min 0 W/m 0,0 km/h (0 Bft) 97,87 %
10.01.2020 23:22 2,6 C 1,1 C 0,6 C 96 % 1031,0 hPa 0,0 l/m 0 min 0 min 0 W/m 0,0 km/h (0 Bft) 100,00 %
10.01.2020 23:24 2,6 C 1,1 C 0,6 C 95 % 1031,1 hPa 0,0 l/m 0 min 0 min 0 W/m 0,0 km/h (0 Bft) 100,00 %
10.01.2020 23:26 2,6 C 1,7 C 0,6 C 95 % 1031,1 hPa 0,0 l/m 0 min 0 min 0 W/m 0,0 km/h (0 Bft) 100,00 %
10.01.2020 23:28 2,6 C 1,7 C 1,1 C 95 % 1031,1 hPa 0,0 l/m 0 min 0 min 0 W/m 0,0 km/h (0 Bft) 56,52 %
10.01.2020 23:30 2,6 C 1,7 C 0,6 C 96 % 1031,1 hPa 0,0 l/m 0 min 0 min 0 W/m 0,0 km/h (0 Bft) 97,87 %
10.01.2020 23:32 2,6 C 1,1 C 0,6 C 96 % 1031,1 hPa 0,0 l/m 0 min 0 min 0 W/m 0,0 km/h (0 Bft) 97,87 %
10.01.2020 23:34 2,5 C 1,1 C 0,6 C 96 % 1031,1 hPa 0,0 l/m 0 min 0 min 0 W/m 0,0 km/h (0 Bft) 97,87 %
10.01.2020 23:36 2,5 C 1,1 C 0,6 C 96 % 1031,1 hPa 0,0 l/m 0 min 0 min 0 W/m 0,0 km/h (0 Bft) 93,62 %
10.01.2020 23:38 2,5 C 1,1 C 0,6 C 96 % 1031,2 hPa 0,0 l/m 0 min 0 min 0 W/m 0,0 km/h (0 Bft) 95,65 %
10.01.2020 23:40 2,4 C 1,1 C 0,6 C 96 % 1031,3 hPa 0,0 l/m 0 min 0 min 0 W/m 0,0 km/h (0 Bft) 91,49 %
10.01.2020 23:42 2,4 C 1,1 C 0,0 C 96 % 1031,3 hPa 0,0 l/m 0 min 0 min 0 W/m 0,0 km/h (0 Bft) 95,74 %
10.01.2020 23:44 2,4 C 1,1 C 0,6 C 96 % 1031,4 hPa 0,0 l/m 0 min 0 min 0 W/m 0,0 km/h (0 Bft) 95,74 %
10.01.2020 23:46 2,4 C 1,1 C 0,0 C 96 % 1031,4 hPa 0,0 l/m 0 min 0 min 0 W/m 0,0 km/h (0 Bft) 95,35 %
10.01.2020 23:48 2,4 C 1,1 C 0,0 C 96 % 1031,4 hPa 0,0 l/m 0 min 0 min 0 W/m 0,0 km/h (0 Bft) 95,74 %
10.01.2020 23:50 2,4 C 1,1 C 0,6 C 96 % 1031,4 hPa 0,0 l/m 0 min 0 min 0 W/m 0,0 km/h (0 Bft) 93,48 %
10.01.2020 23:52 2,4 C 1,1 C 0,6 C 96 % 1031,5 hPa 0,0 l/m 0 min 0 min 0 W/m 0,0 km/h (0 Bft) 93,62 %
10.01.2020 23:54 2,4 C 1,1 C 0,6 C 96 % 1031,5 hPa 0,0 l/m 0 min 0 min 0 W/m 3,2 km/h (1 Bft) 93,62 %
10.01.2020 23:56 2,3 C 1,1 C 0,6 C 96 % 1031,5 hPa 0,0 l/m 0 min 0 min 0 W/m 0,0 km/h (0 Bft) 95,74 %
10.01.2020 23:58 2,3 C 1,1 C 0,0 C 96 % 1031,5 hPa 0,0 l/m 0 min 0 min 0 W/m 0,0 km/h (0 Bft) 93,62 %
_ Min-Zeit 23:56 22:52 23:42 03:42 00:02 - - - - 04:06 15:56
Minimum _ 2,3 C 1,1 C 0,0 C 92 % 1010,0 hPa - - - - 0,0 km/h (0 Bft) 54,35 %
_ Max-Zeit 00:00 00:00 00:00 10:04 23:52 00:04 10:48 00:08 10:48 03:16 00:44
Maximum _ 10,8 C 9,4 C 8,9 C 98 % 1031,5 hPa 0,2 l/m 2 min 4 min 128 W/m 38,6 km/h
SO (5 Bft)
100,00 %
Durchschnitt _ 7,5 C 6,3 C 5,9 C 95 % 1019,1 hPa #3,6 l/m #2 min. #4:12 h 39 W/m 9,2 km/h (2 Bft) 97,23 %
© 2020 W. Hausmann